Time,TemperatureF,DewpointF,PressureIn,WindDirection,WindDirectionDegrees,WindSpeedMPH,WindSpeedGustMPH,Humidity,HourlyPrecipIn,Conditions,Clouds,dailyrainin,SolarRadiationWatts/m^2,SoftwareType,DateUTC
2013-01-17 00:00:00,48.0,44.3,30.02,West,272,2.0,7.0,87,0.03,,SKC,0.37,0.00,VWS V14.01,2013-01-17 05:00:00,
2013-01-17 00:01:00,48.1,44.4,30.02,West,272,3.0,7.0,87,0.03,,SKC,0.37,0.00,VWS V14.01,2013-01-17 05:01:00,
2013-01-17 00:02:00,47.9,44.5,30.01,West,270,3.0,3.0,88,0.04,,SKC,0.01,0.00,VWS V14.01,2013-01-17 05:02:00,
2013-01-17 00:05:00,47.7,44.6,30.01,SW,221,3.0,3.0,89,0.04,,SKC,0.01,0.00,VWS V14.01,2013-01-17 05:05:00,
2013-01-17 00:06:00,47.7,44.6,30.01,SW,218,1.0,4.0,89,0.04,,SKC,0.01,0.00,VWS V14.01,2013-01-17 05:06:00,
2013-01-17 00:07:00,47.6,44.5,30.01,SW,218,0.0,4.0,89,0.04,,SKC,0.01,0.00,VWS V14.01,2013-01-17 05:07:00,
2013-01-17 00:10:00,47.6,44.5,30.01,SW,218,1.0,4.0,89,0.04,,SKC,0.01,0.00,VWS V14.01,2013-01-17 05:10:00,
2013-01-17 00:12:00,47.6,44.5,30.01,SW,218,1.0,4.0,89,0.04,,SKC,0.01,0.00,VWS V14.01,2013-01-17 05:12:00,
2013-01-17 00:15:00,47.3,44.5,30.01,WSW,242,2.0,4.0,90,0.04,,SKC,0.01,0.00,VWS V14.01,2013-01-17 05:15:00,
2013-01-17 00:17:00,47.3,44.5,30.01,WSW,242,2.0,4.0,90,0.04,,SKC,0.01,0.00,VWS V14.01,2013-01-17 05:17:00,
2013-01-17 00:21:00,47.6,44.5,30.02,WSW,242,4.0,5.0,89,0.04,,SKC,0.01,0.00,VWS V14.01,2013-01-17 05:21:00,
2013-01-17 00:22:00,47.7,44.6,30.02,West,267,5.0,9.0,89,0.04,,SKC,0.01,0.00,VWS V14.01,2013-01-17 05:22:00,
2013-01-17 00:26:00,47.9,44.5,30.03,NW,320,10.0,10.0,88,0.04,,SKC,0.01,0.00,VWS V14.01,2013-01-17 05:26:00,
2013-01-17 00:27:00,48.0,44.3,30.03,West,264,6.0,10.0,87,0.04,,SKC,0.01,0.00,VWS V14.01,2013-01-17 05:27:00,
2013-01-17 00:28:00,48.0,44.3,30.03,West,275,4.0,10.0,87,0.04,,SKC,0.01,0.00,VWS V14.01,2013-01-17 05:28:00,
2013-01-17 00:31:00,48.1,44.7,30.03,NW,320,6.0,6.0,88,0.03,,SKC,0.01,0.00,VWS V14.01,2013-01-17 05:31:00,
2013-01-17 00:32:00,48.1,44.4,30.03,NW,313,5.0,7.0,87,0.03,,SKC,0.01,0.00,VWS V14.01,2013-01-17 05:32:00,
2013-01-17 00:33:00,48.1,44.4,30.03,West,263,6.0,7.0,87,0.04,,SKC,0.02,0.00,VWS V14.01,2013-01-17 05:33:00,
2013-01-17 00:36:00,48.0,44.3,30.02,WNW,290,2.0,10.0,87,0.04,,SKC,0.02,0.00,VWS V14.01,2013-01-17 05:36:00,
2013-01-17 00:37:00,48.0,44.3,30.02,WNW,295,8.0,10.0,87,0.04,,SKC,0.02,0.00,VWS V14.01,2013-01-17 05:37:00,
2013-01-17 00:38:00,48.0,44.3,30.02,NW,306,5.0,10.0,87,0.04,,SKC,0.02,0.00,VWS V14.01,2013-01-17 05:38:00,
2013-01-17 00:41:00,47.9,44.5,30.02,WNW,298,5.0,10.0,88,0.05,,SKC,0.03,0.00,VWS V14.01,2013-01-17 05:41:00,
2013-01-17 00:43:00,47.8,44.4,30.02,West,277,4.0,10.0,88,0.05,,SKC,0.03,0.00,VWS V14.01,2013-01-17 05:43:00,
2013-01-17 00:46:00,47.7,44.3,30.02,WSW,249,4.0,10.0,88,0.05,,SKC,0.03,0.00,VWS V14.01,2013-01-17 05:46:00,
2013-01-17 00:48:00,47.7,44.3,30.02,WNW,286,4.0,10.0,88,0.05,,SKC,0.03,0.00,VWS V14.01,2013-01-17 05:48:00,
2013-01-17 00:49:00,47.6,44.2,30.02,WNW,287,0.0,10.0,88,0.05,,SKC,0.03,0.00,VWS V14.01,2013-01-17 05:49:00,
2013-01-17 00:51:00,47.6,44.2,30.02,WNW,285,4.0,10.0,88,0.05,,SKC,0.03,0.00,VWS V14.01,2013-01-17 05:51:00,
2013-01-17 00:53:00,47.6,44.2,30.02,NW,309,7.0,10.0,88,0.05,,SKC,0.03,0.00,VWS V14.01,2013-01-17 05:53:00,
2013-01-17 00:54:00,47.6,44.2,30.02,WNW,301,8.0,10.0,88,0.05,,SKC,0.03,0.00,VWS V14.01,2013-01-17 05:54:00,
2013-01-17 00:56:00,47.7,44.3,30.01,NNW,330,3.0,10.0,88,0.05,,SKC,0.03,0.00,VWS V14.01,2013-01-17 05:56:00,
2013-01-17 00:58:00,47.7,44.3,30.01,WNW,296,6.0,10.0,88,0.05,,SKC,0.03,0.00,VWS V14.01,2013-01-17 05:58:00,
2013-01-17 00:59:00,47.8,44.4,30.01,WSW,255,6.0,10.0,88,0.05,,SKC,0.03,0.00,VWS V14.01,2013-01-17 05:59:00,
2013-01-17 01:01:00,47.8,44.1,30.01,West,272,4.0,4.0,87,0.03,,SKC,0.03,0.00,VWS V14.01,2013-01-17 06:01:00,
2013-01-17 01:03:00,47.8,44.4,30.01,West,281,8.0,8.0,88,0.03,,SKC,0.03,0.00,VWS V14.01,2013-01-17 06:03:00,
2013-01-17 01:04:00,47.8,44.4,30.01,West,269,4.0,11.0,88,0.03,,SKC,0.03,0.00,VWS V14.01,2013-01-17 06:04:00,
2013-01-17 01:06:00,47.9,44.2,30.01,West,270,5.0,11.0,87,0.03,,SKC,0.03,0.00,VWS V14.01,2013-01-17 06:06:00,
2013-01-17 01:08:00,47.9,44.5,30.01,West,274,3.0,11.0,88,0.04,,SKC,0.04,0.00,VWS V14.01,2013-01-17 06:08:00,
2013-01-17 01:10:00,47.9,44.5,30.01,West,273,7.0,11.0,88,0.04,,SKC,0.04,0.00,VWS V14.01,2013-01-17 06:10:00,
2013-01-17 01:11:00,47.9,44.5,30.01,WNW,302,0.0,11.0,88,0.04,,SKC,0.04,0.00,VWS V14.01,2013-01-17 06:11:00,
2013-01-17 01:14:00,47.9,44.5,30.01,West,275,4.0,11.0,88,0.04,,SKC,0.04,0.00,VWS V14.01,2013-01-17 06:14:00,
2013-01-17 01:15:00,47.9,44.5,30.01,NW,311,6.0,11.0,88,0.04,,SKC,0.04,0.00,VWS V14.01,2013-01-17 06:15:00,
2013-01-17 01:16:00,47.9,44.5,30.00,NW,326,6.0,11.0,88,0.04,,SKC,0.04,0.00,VWS V14.01,2013-01-17 06:16:00,
2013-01-17 01:19:00,47.8,44.4,30.01,WSW,254,3.0,11.0,88,0.05,,SKC,0.05,0.00,VWS V14.01,2013-01-17 06:19:00,
2013-01-17 01:20:00,47.9,44.5,30.00,West,281,6.0,11.0,88,0.05,,SKC,0.05,0.00,VWS V14.01,2013-01-17 06:20:00,
2013-01-17 01:22:00,47.9,44.5,30.00,West,259,7.0,11.0,88,0.05,,SKC,0.05,0.00,VWS V14.01,2013-01-17 06:22:00,
2013-01-17 01:24:00,48.0,44.3,30.00,West,261,3.0,11.0,87,0.05,,SKC,0.05,0.00,VWS V14.01,2013-01-17 06:24:00,
2013-01-17 01:25:00,48.0,44.3,30.01,West,274,4.0,11.0,87,0.05,,SKC,0.05,0.00,VWS V14.01,2013-01-17 06:25:00,
2013-01-17 01:27:00,48.1,44.4,30.01,WNW,303,4.0,11.0,87,0.05,,SKC,0.05,0.00,VWS V14.01,2013-01-17 06:27:00,
2013-01-17 01:29:00,48.1,44.4,30.01,West,259,5.0,11.0,87,0.05,,SKC,0.05,0.00,VWS V14.01,2013-01-17 06:29:00,
2013-01-17 01:30:00,48.0,44.6,30.01,West,279,2.0,11.0,88,0.05,,SKC,0.05,0.00,VWS V14.01,2013-01-17 06:30:00,
2013-01-17 01:32:00,48.0,44.6,30.01,West,263,4.0,8.0,88,0.04,,SKC,0.05,0.00,VWS V14.01,2013-01-17 06:32:00,
2013-01-17 01:34:00,48.0,44.3,30.01,West,260,2.0,8.0,87,0.04,,SKC,0.05,0.00,VWS V14.01,2013-01-17 06:34:00,
2013-01-17 01:35:00,48.0,44.6,30.00,NW,306,3.0,8.0,88,0.04,,SKC,0.05,0.00,VWS V14.01,2013-01-17 06:35:00,
2013-01-17 01:37:00,48.0,44.6,30.01,WNW,297,1.0,8.0,88,0.04,,SKC,0.05,0.00,VWS V14.01,2013-01-17 06:37:00,
2013-01-17 01:39:00,48.0,44.6,30.01,West,280,1.0,8.0,88,0.04,,SKC,0.05,0.00,VWS V14.01,2013-01-17 06:39:00,
2013-01-17 01:40:00,48.0,44.6,30.01,WNW,299,4.0,8.0,88,0.04,,SKC,0.05,0.00,VWS V14.01,2013-01-17 06:40:00,
2013-01-17 01:42:00,48.0,44.6,30.02,WSW,237,4.0,8.0,88,0.04,,SKC,0.05,0.00,VWS V14.01,2013-01-17 06:42:00,
2013-01-17 01:45:00,48.0,44.6,30.02,NW,322,5.0,9.0,88,0.04,,SKC,0.05,0.00,VWS V14.01,2013-01-17 06:45:00,
2013-01-17 01:47:00,48.1,44.4,30.02,West,259,3.0,10.0,87,0.04,,SKC,0.05,0.00,VWS V14.01,2013-01-17 06:47:00,
2013-01-17 01:50:00,48.1,44.7,30.03,NW,307,3.0,10.0,88,0.04,,SKC,0.05,0.00,VWS V14.01,2013-01-17 06:50:00,
2013-01-17 01:52:00,48.0,44.6,30.01,NNW,329,0.0,10.0,88,0.04,,SKC,0.05,0.00,VWS V14.01,2013-01-17 06:52:00,
2013-01-17 01:55:00,48.0,44.6,30.02,WSW,257,6.0,10.0,88,0.04,,SKC,0.05,0.00,VWS V14.01,2013-01-17 06:55:00,
2013-01-17 01:58:00,48.1,44.7,30.01,West,259,5.0,10.0,88,0.05,,SKC,0.06,0.00,VWS V14.01,2013-01-17 06:58:00,
2013-01-17 02:00:00,48.1,44.7,30.02,West,261,5.0,10.0,88,0.05,,SKC,0.06,0.00,VWS V14.01,2013-01-17 07:00:00,
2013-01-17 02:01:00,48.1,44.7,30.02,West,261,2.0,10.0,88,0.05,,SKC,0.06,0.00,VWS V14.01,2013-01-17 07:01:00,
2013-01-17 02:03:00,48.0,44.6,30.02,WSW,242,4.0,6.0,88,0.03,,SKC,0.06,0.00,VWS V14.01,2013-01-17 07:03:00,
2013-01-17 02:05:00,47.9,44.5,30.01,West,260,4.0,8.0,88,0.04,,SKC,0.07,0.00,VWS V14.01,2013-01-17 07:05:00,
2013-01-17 02:06:00,48.0,44.6,30.01,West,269,5.0,8.0,88,0.04,,SKC,0.07,0.00,VWS V14.01,2013-01-17 07:06:00,
2013-01-17 02:08:00,48.0,44.6,30.01,West,271,6.0,9.0,88,0.04,,SKC,0.07,0.00,VWS V14.01,2013-01-17 07:08:00,
2013-01-17 02:10:00,48.0,44.6,30.02,SSW,212,7.0,9.0,88,0.04,,SKC,0.07,0.00,VWS V14.01,2013-01-17 07:10:00,
2013-01-17 02:11:00,48.0,44.9,30.02,SSW,211,5.0,9.0,89,0.04,,SKC,0.07,0.00,VWS V14.01,2013-01-17 07:11:00,
2013-01-17 02:12:00,48.0,44.9,30.02,SSW,198,4.0,9.0,89,0.04,,SKC,0.07,0.00,VWS V14.01,2013-01-17 07:12:00,
2013-01-17 02:13:00,47.8,44.7,30.02,SW,221,4.0,9.0,89,0.04,,SKC,0.07,0.00,VWS V14.01,2013-01-17 07:13:00,
2013-01-17 02:15:00,47.6,44.8,30.02,WSW,252,3.0,9.0,90,0.04,,SKC,0.07,0.00,VWS V14.01,2013-01-17 07:15:00,
2013-01-17 02:16:00,47.6,44.8,30.02,WSW,244,4.0,9.0,90,0.04,,SKC,0.07,0.00,VWS V14.01,2013-01-17 07:16:00,
2013-01-17 02:17:00,47.6,44.8,30.02,WSW,244,3.0,9.0,90,0.04,,SKC,0.07,0.00,VWS V14.01,2013-01-17 07:17:00,
2013-01-17 02:18:00,47.7,44.9,30.02,WSW,242,6.0,9.0,90,0.04,,SKC,0.07,0.00,VWS V14.01,2013-01-17 07:18:00,
2013-01-17 02:21:00,47.9,45.1,30.02,SW,225,0.0,9.0,90,0.04,,SKC,0.07,0.00,VWS V14.01,2013-01-17 07:21:00,
2013-01-17 02:22:00,47.9,44.8,30.02,WNW,290,2.0,9.0,89,0.04,,SKC,0.07,0.00,VWS V14.01,2013-01-17 07:22:00,
2013-01-17 02:23:00,47.9,44.8,30.02,WNW,296,2.0,9.0,89,0.05,,SKC,0.08,0.00,VWS V14.01,2013-01-17 07:23:00,
2013-01-17 02:26:00,47.9,44.8,30.02,WNW,298,2.0,9.0,89,0.05,,SKC,0.08,0.00,VWS V14.01,2013-01-17 07:26:00,
2013-01-17 02:27:00,47.9,44.8,30.01,West,270,5.0,9.0,89,0.05,,SKC,0.08,0.00,VWS V14.01,2013-01-17 07:27:00,
2013-01-17 02:28:00,47.9,44.8,30.01,WNW,290,1.0,9.0,89,0.05,,SKC,0.08,0.00,VWS V14.01,2013-01-17 07:28:00,
2013-01-17 02:31:00,47.8,45.0,30.02,West,277,2.0,3.0,90,0.04,,SKC,0.09,0.00,VWS V14.01,2013-01-17 07:31:00,
2013-01-17 02:32:00,47.8,45.0,30.02,WNW,302,3.0,4.0,90,0.04,,SKC,0.09,0.00,VWS V14.01,2013-01-17 07:32:00,
2013-01-17 02:33:00,47.8,45.0,30.02,West,277,4.0,4.0,90,0.04,,SKC,0.09,0.00,VWS V14.01,2013-01-17 07:33:00,
2013-01-17 02:34:00,47.8,45.0,30.02,WNW,302,3.0,4.0,90,0.04,,SKC,0.09,0.00,VWS V14.01,2013-01-17 07:34:00,
2013-01-17 02:36:00,47.7,44.9,30.01,WNW,284,0.0,4.0,90,0.04,,SKC,0.09,0.00,VWS V14.01,2013-01-17 07:36:00,
2013-01-17 02:37:00,47.7,44.9,30.01,WNW,295,2.0,4.0,90,0.04,,SKC,0.09,0.00,VWS V14.01,2013-01-17 07:37:00,
2013-01-17 02:38:00,47.7,44.9,30.01,WNW,302,0.0,4.0,90,0.04,,SKC,0.09,0.00,VWS V14.01,2013-01-17 07:38:00,
2013-01-17 02:39:00,47.7,44.9,30.01,WNW,302,0.0,4.0,90,0.04,,SKC,0.09,0.00,VWS V14.01,2013-01-17 07:39:00,
2013-01-17 02:42:00,47.6,44.8,30.02,WNW,294,2.0,4.0,90,0.04,,SKC,0.09,0.00,VWS V14.01,2013-01-17 07:42:00,
2013-01-17 02:43:00,47.6,44.8,30.02,WNW,294,1.0,4.0,90,0.04,,SKC,0.09,0.00,VWS V14.01,2013-01-17 07:43:00,
2013-01-17 02:44:00,47.6,45.1,30.02,WNW,294,1.0,4.0,91,0.04,,SKC,0.09,0.00,VWS V14.01,2013-01-17 07:44:00,
2013-01-17 02:47:00,47.5,45.0,30.02,NW,304,2.0,6.0,91,0.05,,SKC,0.10,0.00,VWS V14.01,2013-01-17 07:47:00,
2013-01-17 02:48:00,47.5,45.0,30.02,NW,304,3.0,6.0,91,0.05,,SKC,0.10,0.00,VWS V14.01,2013-01-17 07:48:00,
2013-01-17 02:49:00,47.4,44.9,30.02,NW,305,2.0,6.0,91,0.05,,SKC,0.10,0.00,VWS V14.01,2013-01-17 07:49:00,
2013-01-17 02:52:00,47.4,44.9,30.02,WNW,285,3.0,6.0,91,0.05,,SKC,0.10,0.00,VWS V14.01,2013-01-17 07:52:00,
2013-01-17 02:53:00,47.4,44.9,30.02,West,271,4.0,6.0,91,0.05,,SKC,0.10,0.00,VWS V14.01,2013-01-17 07:53:00,
2013-01-17 02:54:00,47.3,44.8,30.02,NW,310,2.0,6.0,91,0.05,,SKC,0.10,0.00,VWS V14.01,2013-01-17 07:54:00,
2013-01-17 02:58:00,47.3,44.8,30.03,West,271,3.0,6.0,91,0.05,,SKC,0.10,0.00,VWS V14.01,2013-01-17 07:58:00,
2013-01-17 02:59:00,47.3,44.8,30.03,West,266,3.0,6.0,91,0.05,,SKC,0.10,0.00,VWS V14.01,2013-01-17 07:59:00,
2013-01-17 03:03:00,47.3,44.8,30.03,West,269,3.0,3.0,91,0.04,,SKC,0.10,0.00,VWS V14.01,2013-01-17 08:03:00,
2013-01-17 03:04:00,47.2,44.7,30.03,WSW,245,1.0,4.0,91,0.04,,SKC,0.10,0.00,VWS V14.01,2013-01-17 08:04:00,
2013-01-17 03:08:00,47.1,44.6,30.03,NW,312,3.0,7.0,91,0.04,,SKC,0.10,0.00,VWS V14.01,2013-01-17 08:08:00,
2013-01-17 03:09:00,47.1,44.6,30.02,WNW,296,2.0,7.0,91,0.04,,SKC,0.10,0.00,VWS V14.01,2013-01-17 08:09:00,
2013-01-17 03:10:00,47.1,44.6,30.02,WNW,302,1.0,7.0,91,0.04,,SKC,0.10,0.00,VWS V14.01,2013-01-17 08:10:00,
2013-01-17 03:13:00,47.2,44.7,30.02,WNW,292,2.0,7.0,91,0.04,,SKC,0.10,0.00,VWS V14.01,2013-01-17 08:13:00,
2013-01-17 03:14:00,47.2,44.7,30.02,NW,312,4.0,11.0,91,0.04,,SKC,0.10,0.00,VWS V14.01,2013-01-17 08:14:00,
2013-01-17 03:15:00,47.2,44.7,30.02,WNW,294,1.0,11.0,91,0.04,,SKC,0.10,0.00,VWS V14.01,2013-01-17 08:15:00,
2013-01-17 03:18:00,47.4,44.6,30.02,WNW,300,3.0,11.0,90,0.04,,SKC,0.10,0.00,VWS V14.01,2013-01-17 08:18:00,
2013-01-17 03:20:00,47.5,44.7,30.02,WNW,287,5.0,11.0,90,0.04,,SKC,0.10,0.00,VWS V14.01,2013-01-17 08:20:00,
2013-01-17 03:23:00,47.6,44.5,30.02,West,265,4.0,11.0,89,0.04,,SKC,0.10,0.00,VWS V14.01,2013-01-17 08:23:00,
2013-01-17 03:25:00,47.7,44.6,30.02,WNW,300,1.0,11.0,89,0.04,,SKC,0.10,0.00,VWS V14.01,2013-01-17 08:25:00,
2013-01-17 03:28:00,47.9,44.5,30.03,NW,307,5.0,11.0,88,0.04,,SKC,0.10,0.00,VWS V14.01,2013-01-17 08:28:00,
2013-01-17 03:30:00,48.0,44.3,30.03,NNW,327,5.0,11.0,87,0.04,,SKC,0.10,0.00,VWS V14.01,2013-01-17 08:30:00,
2013-01-17 03:33:00,48.1,44.1,30.02,NNW,327,3.0,9.0,86,0.01,,SKC,0.10,0.00,VWS V14.01,2013-01-17 08:33:00,
2013-01-17 03:34:00,48.1,44.1,30.02,NNW,346,5.0,9.0,86,0.01,,SKC,0.10,0.00,VWS V14.01,2013-01-17 08:34:00,
2013-01-17 03:35:00,48.1,44.1,30.02,NNW,327,2.0,9.0,86,0.01,,SKC,0.10,0.00,VWS V14.01,2013-01-17 08:35:00,
2013-01-17 03:38:00,48.2,44.2,30.02,NW,308,4.0,10.0,86,0.01,,SKC,0.10,0.00,VWS V14.01,2013-01-17 08:38:00,
2013-01-17 03:40:00,48.2,44.2,30.02,NW,316,5.0,10.0,86,0.01,,SKC,0.10,0.00,VWS V14.01,2013-01-17 08:40:00,
2013-01-17 03:43:00,48.2,43.9,30.02,WNW,290,6.0,11.0,85,0.01,,SKC,0.10,0.00,VWS V14.01,2013-01-17 08:43:00,
2013-01-17 03:45:00,48.3,44.0,30.02,NNW,336,9.0,11.0,85,0.01,,SKC,0.10,0.00,VWS V14.01,2013-01-17 08:45:00,
2013-01-17 03:48:00,48.3,44.0,30.02,NNW,344,10.0,12.0,85,0.01,,SKC,0.10,0.00,VWS V14.01,2013-01-17 08:48:00,
2013-01-17 03:50:00,48.3,43.7,30.02,WNW,300,7.0,12.0,84,0.01,,SKC,0.10,0.00,VWS V14.01,2013-01-17 08:50:00,
2013-01-17 03:51:00,48.3,43.7,30.02,NNW,328,6.0,12.0,84,0.01,,SKC,0.10,0.00,VWS V14.01,2013-01-17 08:51:00,
2013-01-17 03:53:00,48.3,43.7,30.02,NW,311,5.0,12.0,84,0.01,,SKC,0.10,0.00,VWS V14.01,2013-01-17 08:53:00,
2013-01-17 03:55:00,48.3,43.7,30.02,NNW,346,4.0,12.0,84,0.01,,SKC,0.10,0.00,VWS V14.01,2013-01-17 08:55:00,
2013-01-17 03:56:00,48.3,43.7,30.02,NW,306,7.0,12.0,84,0.01,,SKC,0.10,0.00,VWS V14.01,2013-01-17 08:56:00,
2013-01-17 03:59:00,48.3,43.7,30.03,NNW,337,3.0,12.0,84,0.01,,SKC,0.10,0.00,VWS V14.01,2013-01-17 08:59:00,
2013-01-17 04:00:00,48.2,43.3,30.03,NW,306,5.0,14.0,83,0.01,,SKC,0.10,0.00,VWS V14.01,2013-01-17 09:00:00,
2013-01-17 04:01:00,48.2,43.3,30.02,North,350,3.0,6.0,83,0.00,,SKC,0.10,0.00,VWS V14.01,2013-01-17 09:01:00,
2013-01-17 04:04:00,48.2,43.6,30.02,WNW,298,5.0,6.0,84,0.00,,SKC,0.10,0.00,VWS V14.01,2013-01-17 09:04:00,
2013-01-17 04:05:00,48.2,43.6,30.02,NNW,333,11.0,11.0,84,0.00,,SKC,0.10,0.00,VWS V14.01,2013-01-17 09:05:00,
2013-01-17 04:06:00,48.1,43.5,30.02,NW,313,9.0,11.0,84,0.00,,SKC,0.10,0.00,VWS V14.01,2013-01-17 09:06:00,
2013-01-17 04:07:00,48.1,43.2,30.02,NW,323,5.0,11.0,83,0.00,,SKC,0.10,0.00,VWS V14.01,2013-01-17 09:07:00,
2013-01-17 04:09:00,48.1,43.2,30.02,West,269,5.0,14.0,83,0.00,,SKC,0.10,0.00,VWS V14.01,2013-01-17 09:09:00,
2013-01-17 04:11:00,48.1,43.2,30.02,NNW,338,5.0,14.0,83,0.00,,SKC,0.10,0.00,VWS V14.01,2013-01-17 09:11:00,
2013-01-17 04:12:00,48.1,43.2,30.02,NW,304,2.0,14.0,83,0.00,,SKC,0.10,0.00,VWS V14.01,2013-01-17 09:12:00,
2013-01-17 04:14:00,47.9,43.3,30.03,NW,306,9.0,14.0,84,0.00,,SKC,0.10,0.00,VWS V14.01,2013-01-17 09:14:00,
2013-01-17 04:16:00,47.9,43.0,30.03,NNW,333,10.0,14.0,83,0.00,,SKC,0.10,0.00,VWS V14.01,2013-01-17 09:16:00,
2013-01-17 04:17:00,47.9,43.0,30.03,WNW,284,8.0,14.0,83,0.00,,SKC,0.10,0.00,VWS V14.01,2013-01-17 09:17:00,
2013-01-17 04:19:00,47.8,42.6,30.03,NNW,344,12.0,14.0,82,0.00,,SKC,0.10,0.00,VWS V14.01,2013-01-17 09:19:00,
2013-01-17 04:21:00,47.9,43.0,30.03,NW,315,6.0,14.0,83,0.00,,SKC,0.10,0.00,VWS V14.01,2013-01-17 09:21:00,
2013-01-17 04:22:00,47.8,42.9,30.03,WNW,282,3.0,14.0,83,0.00,,SKC,0.10,0.00,VWS V14.01,2013-01-17 09:22:00,
2013-01-17 04:24:00,47.8,42.6,30.02,NNW,344,7.0,14.0,82,0.00,,SKC,0.10,0.00,VWS V14.01,2013-01-17 09:24:00,
2013-01-17 04:26:00,47.8,42.6,30.02,NNW,333,6.0,14.0,82,0.00,,SKC,0.10,0.00,VWS V14.01,2013-01-17 09:26:00,
2013-01-17 04:27:00,47.7,42.5,30.02,West,266,2.0,14.0,82,0.00,,SKC,0.10,0.00,VWS V14.01,2013-01-17 09:27:00,
2013-01-17 04:29:00,47.7,42.5,30.02,WNW,300,3.0,14.0,82,0.00,,SKC,0.10,0.00,VWS V14.01,2013-01-17 09:29:00,
2013-01-17 04:31:00,47.6,42.4,30.02,WNW,295,6.0,6.0,82,0.00,,SKC,0.10,0.00,VWS V14.01,2013-01-17 09:31:00,
2013-01-17 04:32:00,47.6,42.4,30.02,North,350,7.0,9.0,82,0.00,,SKC,0.10,0.00,VWS V14.01,2013-01-17 09:32:00,
2013-01-17 04:34:00,47.6,42.4,30.02,WNW,283,3.0,9.0,82,0.00,,SKC,0.10,0.00,VWS V14.01,2013-01-17 09:34:00,
2013-01-17 04:36:00,47.6,42.4,30.02,WNW,303,3.0,9.0,82,0.00,,SKC,0.10,0.00,VWS V14.01,2013-01-17 09:36:00,
2013-01-17 04:37:00,47.6,42.4,30.02,West,281,5.0,9.0,82,0.00,,SKC,0.10,0.00,VWS V14.01,2013-01-17 09:37:00,
2013-01-17 04:40:00,47.4,42.2,30.03,NNW,334,7.0,9.0,82,0.01,,SKC,0.11,0.00,VWS V14.01,2013-01-17 09:40:00,
2013-01-17 04:41:00,47.4,42.2,30.03,NW,323,5.0,9.0,82,0.01,,SKC,0.11,0.00,VWS V14.01,2013-01-17 09:41:00,
2013-01-17 04:42:00,47.3,42.1,30.03,NW,325,6.0,9.0,82,0.01,,SKC,0.11,0.00,VWS V14.01,2013-01-17 09:42:00,
2013-01-17 04:45:00,47.2,42.0,30.03,NNW,344,6.0,10.0,82,0.01,,SKC,0.11,0.00,VWS V14.01,2013-01-17 09:45:00,
2013-01-17 04:46:00,47.2,42.0,30.03,West,281,5.0,10.0,82,0.01,,SKC,0.11,0.00,VWS V14.01,2013-01-17 09:46:00,
2013-01-17 04:47:00,47.2,42.3,30.03,NNW,344,15.0,15.0,83,0.01,,SKC,0.11,0.00,VWS V14.01,2013-01-17 09:47:00,
2013-01-17 04:48:00,47.1,42.2,30.03,North,351,11.0,15.0,83,0.01,,SKC,0.11,0.00,VWS V14.01,2013-01-17 09:48:00,
2013-01-17 04:51:00,46.9,42.0,30.03,WNW,298,1.0,15.0,83,0.01,,SKC,0.11,0.00,VWS V14.01,2013-01-17 09:51:00,
2013-01-17 04:52:00,46.9,42.3,30.03,NW,325,4.0,15.0,84,0.01,,SKC,0.11,0.00,VWS V14.01,2013-01-17 09:52:00,
2013-01-17 04:53:00,46.9,42.3,30.03,NW,317,9.0,15.0,84,0.01,,SKC,0.11,0.00,VWS V14.01,2013-01-17 09:53:00,
2013-01-17 04:56:00,46.7,42.1,30.02,NW,325,4.0,15.0,84,0.02,,SKC,0.12,0.00,VWS V14.01,2013-01-17 09:56:00,
2013-01-17 04:57:00,46.6,42.3,30.02,NW,325,2.0,15.0,85,0.02,,SKC,0.12,0.00,VWS V14.01,2013-01-17 09:57:00,
2013-01-17 04:58:00,46.5,42.2,30.02,WNW,290,4.0,15.0,85,0.02,,SKC,0.12,0.00,VWS V14.01,2013-01-17 09:58:00,
2013-01-17 05:01:00,46.5,42.5,30.02,NNW,340,1.0,3.0,86,0.03,,SKC,0.13,0.00,VWS V14.01,2013-01-17 10:01:00,
2013-01-17 05:03:00,46.4,42.5,30.02,WNW,284,1.0,3.0,86,0.03,,SKC,0.13,0.00,VWS V14.01,2013-01-17 10:03:00,
2013-01-17 05:06:00,46.2,42.2,30.03,West,261,2.0,5.0,86,0.03,,SKC,0.13,0.00,VWS V14.01,2013-01-17 10:06:00,
2013-01-17 05:07:00,46.1,42.2,30.03,West,261,2.0,5.0,86,0.03,,SKC,0.13,0.00,VWS V14.01,2013-01-17 10:07:00,
2013-01-17 05:08:00,46.1,42.2,30.03,West,261,3.0,5.0,86,0.03,,SKC,0.13,0.00,VWS V14.01,2013-01-17 10:08:00,
2013-01-17 05:12:00,45.9,42.3,30.04,West,261,2.0,5.0,87,0.03,,SKC,0.13,0.00,VWS V14.01,2013-01-17 10:12:00,
2013-01-17 05:13:00,45.8,42.5,30.04,WSW,250,4.0,5.0,88,0.03,,SKC,0.13,0.00,VWS V14.01,2013-01-17 10:13:00,
2013-01-17 05:14:00,45.7,42.1,30.04,WNW,293,4.0,8.0,87,0.03,,SKC,0.13,0.00,VWS V14.01,2013-01-17 10:14:00,
2013-01-17 05:17:00,45.7,42.1,30.04,WNW,296,1.0,8.0,87,0.03,,SKC,0.13,0.00,VWS V14.01,2013-01-17 10:17:00,
2013-01-17 05:18:00,45.7,42.4,30.03,NNW,330,2.0,8.0,88,0.03,,SKC,0.13,0.00,VWS V14.01,2013-01-17 10:18:00,
2013-01-17 05:19:00,45.7,42.4,30.03,NNW,327,1.0,8.0,88,0.04,,SKC,0.14,0.00,VWS V14.01,2013-01-17 10:19:00,
2013-01-17 05:22:00,45.7,42.4,30.02,West,281,1.0,8.0,88,0.04,,SKC,0.14,0.00,VWS V14.01,2013-01-17 10:22:00,
2013-01-17 05:23:00,45.6,42.0,30.02,NNW,332,6.0,8.0,87,0.05,,SKC,0.15,0.00,VWS V14.01,2013-01-17 10:23:00,
2013-01-17 05:24:00,45.6,42.0,30.02,NNW,335,2.0,8.0,87,0.05,,SKC,0.15,0.00,VWS V14.01,2013-01-17 10:24:00,
2013-01-17 05:27:00,45.5,41.9,30.02,North,350,2.0,9.0,87,0.05,,SKC,0.15,0.00,VWS V14.01,2013-01-17 10:27:00,
2013-01-17 05:28:00,45.5,41.9,30.02,North,355,5.0,9.0,87,0.05,,SKC,0.15,0.00,VWS V14.01,2013-01-17 10:28:00,
2013-01-17 05:29:00,45.4,41.8,30.02,NNW,348,0.0,9.0,87,0.06,,SKC,0.16,0.00,VWS V14.01,2013-01-17 10:29:00,
2013-01-17 05:32:00,45.3,41.7,30.02,WNW,294,1.0,2.0,87,0.07,,SKC,0.17,0.00,VWS V14.01,2013-01-17 10:32:00,
2013-01-17 05:33:00,45.3,42.0,30.02,WNW,294,0.0,2.0,88,0.07,,SKC,0.17,0.00,VWS V14.01,2013-01-17 10:33:00,
2013-01-17 05:34:00,45.3,42.0,30.02,WNW,294,1.0,2.0,88,0.07,,SKC,0.17,0.00,VWS V14.01,2013-01-17 10:34:00,
2013-01-17 05:37:00,45.2,41.9,30.02,West,266,0.0,3.0,88,0.07,,SKC,0.17,0.00,VWS V14.01,2013-01-17 10:37:00,
2013-01-17 05:38:00,45.2,41.9,30.02,SW,215,3.0,3.0,88,0.07,,SKC,0.17,0.00,VWS V14.01,2013-01-17 10:38:00,
2013-01-17 05:39:00,45.1,41.8,30.03,South,190,5.0,6.0,88,0.07,,SKC,0.17,0.00,VWS V14.01,2013-01-17 10:39:00,
2013-01-17 05:42:00,44.8,41.5,30.04,SSW,212,5.0,6.0,88,0.07,,SKC,0.17,0.00,VWS V14.01,2013-01-17 10:42:00,
2013-01-17 05:43:00,44.7,41.7,30.04,SW,219,4.0,6.0,89,0.07,,SKC,0.17,0.00,VWS V14.01,2013-01-17 10:43:00,
2013-01-17 05:44:00,44.7,41.7,30.04,SW,220,6.0,7.0,89,0.07,,SKC,0.17,0.00,VWS V14.01,2013-01-17 10:44:00,
2013-01-17 05:48:00,44.6,41.6,30.04,SSW,209,1.0,7.0,89,0.07,,SKC,0.17,0.00,VWS V14.01,2013-01-17 10:48:00,
2013-01-17 05:49:00,44.6,41.6,30.04,West,265,3.0,7.0,89,0.07,,SKC,0.17,0.00,VWS V14.01,2013-01-17 10:49:00,
2013-01-17 05:53:00,44.6,41.0,30.04,WSW,257,1.0,7.0,87,0.07,,SKC,0.17,0.00,VWS V14.01,2013-01-17 10:53:00,
2013-01-17 05:54:00,44.6,41.0,30.04,WNW,300,0.0,7.0,87,0.08,,SKC,0.18,0.00,VWS V14.01,2013-01-17 10:54:00,
2013-01-17 05:58:00,44.5,40.0,30.03,West,273,5.0,8.0,84,0.08,,SKC,0.18,0.00,VWS V14.01,2013-01-17 10:58:00,
2013-01-17 05:59:00,44.5,40.0,30.03,West,274,1.0,8.0,84,0.08,,SKC,0.18,0.00,VWS V14.01,2013-01-17 10:59:00,
2013-01-17 06:00:00,44.5,39.7,30.03,WNW,287,4.0,8.0,83,0.08,,SKC,0.18,0.00,VWS V14.01,2013-01-17 11:00:00,
2013-01-17 06:03:00,44.5,39.4,30.03,NNE,15,0.0,1.0,82,0.06,,SKC,0.19,0.00,VWS V14.01,2013-01-17 11:03:00,
2013-01-17 06:04:00,44.5,39.4,30.03,ENE,66,0.0,1.0,82,0.06,,SKC,0.19,0.00,VWS V14.01,2013-01-17 11:04:00,
2013-01-17 06:05:00,44.5,39.7,30.03,ESE,111,1.0,1.0,83,0.06,,SKC,0.19,0.00,VWS V14.01,2013-01-17 11:05:00,
2013-01-17 06:08:00,44.4,39.9,30.03,SSE,162,2.0,3.0,84,0.06,,SKC,0.19,0.00,VWS V14.01,2013-01-17 11:08:00,
2013-01-17 06:09:00,44.3,39.8,30.03,South,175,2.0,3.0,84,0.06,,SKC,0.19,0.00,VWS V14.01,2013-01-17 11:09:00,
2013-01-17 06:10:00,44.3,39.8,30.03,South,175,3.0,3.0,84,0.06,,SKC,0.19,0.00,VWS V14.01,2013-01-17 11:10:00,
2013-01-17 06:13:00,43.6,40.0,30.03,SSW,192,5.0,5.0,87,0.06,,SKC,0.19,0.00,VWS V14.01,2013-01-17 11:13:00,
2013-01-17 06:14:00,43.5,39.9,30.03,SSW,196,3.0,5.0,87,0.06,,SKC,0.19,0.00,VWS V14.01,2013-01-17 11:14:00,
2013-01-17 06:15:00,43.4,39.5,30.03,SSW,194,3.0,5.0,86,0.06,,SKC,0.19,0.00,VWS V14.01,2013-01-17 11:15:00,
2013-01-17 06:18:00,43.3,39.1,30.03,West,263,1.0,6.0,85,0.07,,SKC,0.20,0.00,VWS V14.01,2013-01-17 11:18:00,
2013-01-17 06:19:00,43.3,38.8,30.03,SE,144,3.0,6.0,84,0.07,,SKC,0.20,0.00,VWS V14.01,2013-01-17 11:19:00,
2013-01-17 06:20:00,43.3,38.5,30.03,SSE,163,1.0,6.0,83,0.07,,SKC,0.20,0.00,VWS V14.01,2013-01-17 11:20:00,
2013-01-17 06:23:00,43.4,38.6,30.03,WSW,244,3.0,6.0,83,0.07,,SKC,0.20,0.00,VWS V14.01,2013-01-17 11:23:00,
2013-01-17 06:24:00,43.4,38.9,30.03,WSW,238,4.0,6.0,84,0.07,,SKC,0.20,0.00,VWS V14.01,2013-01-17 11:24:00,
2013-01-17 06:25:00,43.4,38.6,30.03,WSW,244,3.0,6.0,83,0.07,,SKC,0.20,0.00,VWS V14.01,2013-01-17 11:25:00,
2013-01-17 06:29:00,43.5,37.4,30.04,North,350,4.0,6.0,79,0.07,,SKC,0.20,0.00,VWS V14.01,2013-01-17 11:29:00,
2013-01-17 06:30:00,43.5,37.4,30.04,North,351,2.0,6.0,79,0.07,,SKC,0.20,0.00,VWS V14.01,2013-01-17 11:30:00,
2013-01-17 06:34:00,43.6,37.5,30.05,NW,306,1.0,6.0,79,0.04,,SKC,0.20,0.00,VWS V14.01,2013-01-17 11:34:00,
2013-01-17 06:35:00,43.6,37.5,30.05,NW,306,0.0,6.0,79,0.04,,SKC,0.20,0.00,VWS V14.01,2013-01-17 11:35:00,
2013-01-17 06:39:00,43.6,37.8,30.05,South,182,2.0,6.0,80,0.04,,SKC,0.20,0.00,VWS V14.01,2013-01-17 11:39:00,
2013-01-17 06:40:00,43.6,37.5,30.05,SSE,164,3.0,6.0,79,0.04,,SKC,0.20,0.00,VWS V14.01,2013-01-17 11:40:00,
2013-01-17 06:44:00,43.3,38.2,30.05,SSW,192,0.0,6.0,82,0.04,,SKC,0.20,0.00,VWS V14.01,2013-01-17 11:44:00,
2013-01-17 06:45:00,43.3,38.5,30.05,South,191,0.0,6.0,83,0.04,,SKC,0.20,0.00,VWS V14.01,2013-01-17 11:45:00,
2013-01-17 06:46:00,43.3,38.5,30.05,South,191,0.0,6.0,83,0.04,,SKC,0.20,0.00,VWS V14.01,2013-01-17 11:46:00,
2013-01-17 06:49:00,43.1,37.7,30.05,SSW,192,0.0,6.0,81,0.04,,SKC,0.20,0.00,VWS V14.01,2013-01-17 11:49:00,
2013-01-17 06:50:00,43.1,37.7,30.05,South,191,0.0,6.0,81,0.04,,SKC,0.20,0.00,VWS V14.01,2013-01-17 11:50:00,
2013-01-17 06:51:00,43.1,37.7,30.05,SSW,192,0.0,6.0,81,0.04,,SKC,0.20,0.00,VWS V14.01,2013-01-17 11:51:00,
2013-01-17 06:54:00,43.1,38.3,30.06,South,191,0.0,6.0,83,0.04,,SKC,0.20,0.00,VWS V14.01,2013-01-17 11:54:00,
2013-01-17 06:56:00,43.1,38.3,30.07,North,355,2.0,6.0,83,0.04,,SKC,0.20,0.00,VWS V14.01,2013-01-17 11:56:00,
2013-01-17 06:59:00,43.0,37.6,30.06,NNW,327,5.0,8.0,81,0.04,,SKC,0.20,0.00,VWS V14.01,2013-01-17 11:59:00,
2013-01-17 07:01:00,43.0,37.3,30.06,West,280,3.0,3.0,80,0.01,,SKC,0.20,0.00,VWS V14.01,2013-01-17 12:01:00,
2013-01-17 07:02:00,43.0,36.9,30.06,WNW,292,2.0,4.0,79,0.01,,SKC,0.20,0.00,VWS V14.01,2013-01-17 12:02:00,
2013-01-17 07:04:00,43.1,36.7,30.06,WNW,292,0.0,4.0,78,0.01,,SKC,0.20,0.00,VWS V14.01,2013-01-17 12:04:00,
2013-01-17 07:06:00,43.1,36.7,30.06,WNW,292,0.0,4.0,78,0.02,,SKC,0.21,0.00,VWS V14.01,2013-01-17 12:06:00,
2013-01-17 07:07:00,43.1,36.7,30.06,NW,312,3.0,4.0,78,0.02,,SKC,0.21,0.00,VWS V14.01,2013-01-17 12:07:00,
2013-01-17 07:09:00,43.1,36.4,30.07,WNW,290,2.0,4.0,77,0.02,,SKC,0.21,0.00,VWS V14.01,2013-01-17 12:09:00,
2013-01-17 07:11:00,43.0,36.9,30.07,SW,231,4.0,5.0,79,0.02,,SKC,0.21,0.00,VWS V14.01,2013-01-17 12:11:00,
2013-01-17 07:12:00,42.9,36.5,30.07,West,268,2.0,5.0,78,0.02,,SKC,0.21,0.00,VWS V14.01,2013-01-17 12:12:00,
2013-01-17 07:15:00,42.8,36.4,30.07,WSW,257,2.0,9.0,78,0.02,,SKC,0.21,0.00,VWS V14.01,2013-01-17 12:15:00,
2013-01-17 07:16:00,42.7,36.3,30.07,WSW,246,3.0,9.0,78,0.02,,SKC,0.21,0.00,VWS V14.01,2013-01-17 12:16:00,
2013-01-17 07:17:00,42.7,36.7,30.07,WSW,238,2.0,9.0,79,0.02,,SKC,0.21,0.00,VWS V14.01,2013-01-17 12:17:00,
2013-01-17 07:20:00,42.3,37.2,30.07,West,269,3.0,9.0,82,0.02,,SKC,0.21,0.00,VWS V14.01,2013-01-17 12:20:00,
2013-01-17 07:21:00,42.2,36.8,30.06,SW,221,1.0,9.0,81,0.02,,SKC,0.21,0.00,VWS V14.01,2013-01-17 12:21:00,
2013-01-17 07:22:00,42.1,37.0,30.06,SW,221,0.0,9.0,82,0.02,,SKC,0.21,0.00,VWS V14.01,2013-01-17 12:22:00,
2013-01-17 07:25:00,42.0,37.2,30.06,SW,221,3.0,9.0,83,0.02,,SKC,0.21,0.00,VWS V14.01,2013-01-17 12:25:00,
2013-01-17 07:27:00,41.8,36.7,30.06,SW,221,3.0,9.0,82,0.02,,SKC,0.21,0.00,VWS V14.01,2013-01-17 12:27:00,
2013-01-17 07:28:00,41.7,36.9,30.06,SW,224,4.0,9.0,83,0.02,,SKC,0.21,0.00,VWS V14.01,2013-01-17 12:28:00,
2013-01-17 07:30:00,41.4,36.9,30.06,SW,225,5.0,9.0,84,0.02,,SKC,0.21,0.00,VWS V14.01,2013-01-17 12:30:00,
2013-01-17 07:32:00,41.4,36.9,30.06,West,261,4.0,5.0,84,0.01,,SKC,0.21,0.00,VWS V14.01,2013-01-17 12:32:00,
2013-01-17 07:33:00,41.3,36.8,30.06,West,261,2.0,5.0,84,0.01,,SKC,0.21,0.00,VWS V14.01,2013-01-17 12:33:00,
2013-01-17 07:35:00,41.2,37.3,30.06,West,266,4.0,5.0,86,0.01,,SKC,0.21,0.00,VWS V14.01,2013-01-17 12:35:00,
2013-01-17 07:37:00,41.1,37.2,30.06,West,259,3.0,5.0,86,0.01,,SKC,0.21,0.00,VWS V14.01,2013-01-17 12:37:00,
2013-01-17 07:38:00,41.0,37.1,30.06,West,267,4.0,5.0,86,0.01,,SKC,0.21,0.00,VWS V14.01,2013-01-17 12:38:00,
2013-01-17 07:40:00,41.0,36.8,30.06,West,267,0.0,5.0,85,0.01,,SKC,0.21,0.00,VWS V14.01,2013-01-17 12:40:00,
2013-01-17 07:42:00,41.0,37.1,30.06,West,267,0.0,5.0,86,0.01,,SKC,0.21,0.00,VWS V14.01,2013-01-17 12:42:00,
2013-01-17 07:43:00,41.0,37.1,30.06,West,267,0.0,5.0,86,0.01,,SKC,0.21,0.00,VWS V14.01,2013-01-17 12:43:00,
2013-01-17 07:45:00,41.0,37.4,30.06,West,267,1.0,5.0,87,0.01,,SKC,0.21,0.00,VWS V14.01,2013-01-17 12:45:00,
2013-01-17 07:47:00,40.9,37.3,30.06,West,267,0.0,5.0,87,0.01,,SKC,0.21,0.00,VWS V14.01,2013-01-17 12:47:00,
2013-01-17 07:48:00,40.9,37.3,30.06,West,267,0.0,5.0,87,0.01,,SKC,0.21,0.00,VWS V14.01,2013-01-17 12:48:00,
2013-01-17 07:50:00,40.9,37.0,30.07,West,267,1.0,5.0,86,0.01,,SKC,0.21,0.00,VWS V14.01,2013-01-17 12:50:00,
2013-01-17 07:52:00,41.0,36.8,30.07,West,267,2.0,5.0,85,0.01,,SKC,0.21,0.00,VWS V14.01,2013-01-17 12:52:00,
2013-01-17 07:53:00,40.9,36.8,30.07,West,267,3.0,5.0,85,0.01,,SKC,0.21,0.00,VWS V14.01,2013-01-17 12:53:00,
2013-01-17 07:56:00,41.0,36.8,30.08,West,267,2.0,5.0,85,0.01,,SKC,0.21,0.00,VWS V14.01,2013-01-17 12:56:00,
2013-01-17 07:58:00,41.1,36.6,30.08,West,267,2.0,5.0,84,0.01,,SKC,0.21,0.00,VWS V14.01,2013-01-17 12:58:00,
2013-01-17 08:01:00,41.2,36.4,30.08,West,267,0.0,5.0,83,0.01,,SKC,0.21,0.00,VWS V14.01,2013-01-17 13:01:00,
2013-01-17 08:03:00,41.3,37.1,30.08,West,267,0.0,0.0,85,0.01,,SKC,0.21,0.00,VWS V14.01,2013-01-17 13:03:00,
2013-01-17 08:04:00,41.2,37.0,30.08,West,267,0.0,1.0,85,0.01,,SKC,0.21,0.00,VWS V14.01,2013-01-17 13:04:00,
2013-01-17 08:06:00,41.2,37.0,30.08,West,267,0.0,1.0,85,0.01,,SKC,0.21,0.00,VWS V14.01,2013-01-17 13:06:00,
2013-01-17 08:08:00,41.2,37.3,30.08,West,267,0.0,1.0,86,0.01,,SKC,0.21,5.00,VWS V14.01,2013-01-17 13:08:00,
2013-01-17 08:09:00,41.1,37.2,30.08,West,267,0.0,2.0,86,0.01,,SKC,0.21,5.00,VWS V14.01,2013-01-17 13:09:00,
2013-01-17 08:11:00,41.1,36.9,30.08,West,267,0.0,2.0,85,0.01,,SKC,0.21,9.00,VWS V14.01,2013-01-17 13:11:00,
2013-01-17 08:13:00,41.1,37.2,30.08,West,267,0.0,2.0,86,0.01,,SKC,0.21,7.00,VWS V14.01,2013-01-17 13:13:00,
2013-01-17 08:14:00,41.0,37.1,30.08,West,267,0.0,2.0,86,0.01,,SKC,0.21,7.00,VWS V14.01,2013-01-17 13:14:00,
2013-01-17 08:16:00,40.9,36.5,30.08,West,267,0.0,2.0,84,0.01,,SKC,0.21,9.00,VWS V14.01,2013-01-17 13:16:00,
2013-01-17 08:18:00,41.0,36.8,30.08,West,267,0.0,2.0,85,0.02,,SKC,0.22,11.00,VWS V14.01,2013-01-17 13:18:00,
2013-01-17 08:19:00,41.0,37.1,30.08,West,272,3.0,3.0,86,0.02,,SKC,0.22,12.00,VWS V14.01,2013-01-17 13:19:00,
2013-01-17 08:21:00,41.0,36.8,30.07,West,272,0.0,3.0,85,0.02,,SKC,0.22,19.00,VWS V14.01,2013-01-17 13:21:00,
2013-01-17 08:23:00,41.0,36.5,30.07,West,272,2.0,3.0,84,0.02,,SKC,0.22,26.00,VWS V14.01,2013-01-17 13:23:00,
2013-01-17 08:24:00,41.0,37.1,30.06,West,272,0.0,3.0,86,0.02,,SKC,0.22,32.00,VWS V14.01,2013-01-17 13:24:00,
2013-01-17 08:26:00,41.1,37.8,30.06,West,272,0.0,3.0,88,0.02,,SKC,0.22,47.00,VWS V14.01,2013-01-17 13:26:00,
2013-01-17 08:28:00,41.1,38.1,30.06,West,272,0.0,3.0,89,0.02,,SKC,0.22,65.00,VWS V14.01,2013-01-17 13:28:00,
2013-01-17 08:29:00,41.1,38.1,30.07,West,272,0.0,3.0,89,0.02,,SKC,0.22,65.00,VWS V14.01,2013-01-17 13:29:00,
2013-01-17 08:31:00,41.1,38.4,30.07,West,272,0.0,1.0,90,0.01,,SKC,0.22,62.00,VWS V14.01,2013-01-17 13:31:00,
2013-01-17 08:33:00,41.0,38.0,30.07,West,272,0.0,1.0,89,0.01,,SKC,0.22,62.00,VWS V14.01,2013-01-17 13:33:00,
2013-01-17 08:34:00,41.0,38.3,30.07,West,272,0.0,1.0,90,0.01,,SKC,0.22,58.00,VWS V14.01,2013-01-17 13:34:00,
2013-01-17 08:36:00,41.0,38.6,30.07,West,272,0.0,3.0,91,0.01,,SKC,0.22,44.00,VWS V14.01,2013-01-17 13:36:00,
2013-01-17 08:38:00,40.9,38.5,30.07,West,272,2.0,3.0,91,0.01,,SKC,0.22,39.00,VWS V14.01,2013-01-17 13:38:00,
2013-01-17 08:39:00,40.8,38.1,30.07,West,272,3.0,3.0,90,0.01,,SKC,0.22,35.00,VWS V14.01,2013-01-17 13:39:00,
2013-01-17 08:41:00,40.9,38.2,30.08,West,272,0.0,3.0,90,0.01,,SKC,0.22,32.00,VWS V14.01,2013-01-17 13:41:00,
2013-01-17 08:43:00,40.9,38.2,30.08,West,268,2.0,3.0,90,0.01,,SKC,0.22,25.00,VWS V14.01,2013-01-17 13:43:00,
2013-01-17 08:44:00,40.9,38.2,30.08,SSW,194,1.0,3.0,90,0.01,,SKC,0.22,25.00,VWS V14.01,2013-01-17 13:44:00,
2013-01-17 08:46:00,41.0,38.3,30.09,SSW,194,2.0,3.0,90,0.01,,SKC,0.22,19.00,VWS V14.01,2013-01-17 13:46:00,
2013-01-17 08:48:00,40.9,38.2,30.10,SSW,196,1.0,3.0,90,0.01,,SKC,0.22,14.00,VWS V14.01,2013-01-17 13:48:00,
2013-01-17 08:49:00,40.9,37.9,30.10,SSW,196,0.0,3.0,89,0.01,,SKC,0.22,14.00,VWS V14.01,2013-01-17 13:49:00,
2013-01-17 08:52:00,40.9,37.9,30.10,SSW,193,0.0,3.0,89,0.01,,SKC,0.22,16.00,VWS V14.01,2013-01-17 13:52:00,
2013-01-17 08:53:00,41.0,38.3,30.10,SSW,193,0.0,3.0,90,0.01,,SKC,0.22,19.00,VWS V14.01,2013-01-17 13:53:00,
2013-01-17 08:54:00,41.0,38.3,30.09,SSW,193,0.0,3.0,90,0.01,,SKC,0.22,21.00,VWS V14.01,2013-01-17 13:54:00,
2013-01-17 08:57:00,41.0,37.7,30.09,SSW,193,0.0,3.0,88,0.01,,SKC,0.22,35.00,VWS V14.01,2013-01-17 13:57:00,
2013-01-17 08:59:00,41.0,37.7,30.09,SSW,193,1.0,3.0,88,0.01,,SKC,0.22,30.00,VWS V14.01,2013-01-17 13:59:00,
2013-01-17 09:02:00,41.1,38.1,30.09,SSW,193,1.0,1.0,89,0.01,,SKC,0.22,28.00,VWS V14.01,2013-01-17 14:02:00,
2013-01-17 09:04:00,41.0,37.7,30.09,SSW,193,0.0,1.0,88,0.01,,SKC,0.22,23.00,VWS V14.01,2013-01-17 14:04:00,
2013-01-17 09:05:00,41.0,37.7,30.09,SSW,193,0.0,1.0,88,0.01,,SKC,0.22,21.00,VWS V14.01,2013-01-17 14:05:00,
2013-01-17 09:07:00,41.0,37.4,30.10,SSW,193,0.0,1.0,87,0.01,,SKC,0.22,19.00,VWS V14.01,2013-01-17 14:07:00,
2013-01-17 09:09:00,41.0,37.1,30.11,SSW,193,1.0,1.0,86,0.01,,SKC,0.22,18.00,VWS V14.01,2013-01-17 14:09:00,
2013-01-17 09:10:00,41.0,37.1,30.11,SSW,193,1.0,1.0,86,0.02,,SKC,0.23,18.00,VWS V14.01,2013-01-17 14:10:00,
2013-01-17 09:13:00,41.2,37.9,30.11,SSW,193,0.0,2.0,88,0.02,,SKC,0.23,12.00,VWS V14.01,2013-01-17 14:13:00,
2013-01-17 09:14:00,41.1,37.8,30.11,SSW,193,1.0,2.0,88,0.02,,SKC,0.23,18.00,VWS V14.01,2013-01-17 14:14:00,
2013-01-17 09:15:00,41.1,37.8,30.11,SSW,193,0.0,2.0,88,0.02,,SKC,0.23,18.00,VWS V14.01,2013-01-17 14:15:00,
2013-01-17 09:18:00,41.1,38.1,30.12,SSW,193,0.0,2.0,89,0.02,,SKC,0.23,37.00,VWS V14.01,2013-01-17 14:18:00,
2013-01-17 09:20:00,41.1,38.1,30.12,SSW,193,1.0,2.0,89,0.02,,SKC,0.23,37.00,VWS V14.01,2013-01-17 14:20:00,
2013-01-17 09:23:00,41.0,38.0,30.12,SE,144,1.0,5.0,89,0.02,,SKC,0.23,30.00,VWS V14.01,2013-01-17 14:23:00,
2013-01-17 09:25:00,41.0,38.3,30.12,SE,144,0.0,5.0,90,0.02,,SKC,0.23,30.00,VWS V14.01,2013-01-17 14:25:00,
2013-01-17 09:28:00,41.0,38.6,30.12,SE,144,1.0,5.0,91,0.03,,SKC,0.24,32.00,VWS V14.01,2013-01-17 14:28:00,
2013-01-17 09:30:00,41.0,38.6,30.11,East,101,1.0,5.0,91,0.03,,SKC,0.24,35.00,VWS V14.01,2013-01-17 14:30:00,
2013-01-17 09:33:00,40.9,38.8,30.12,East,101,0.0,2.0,92,0.03,,SKC,0.25,35.00,VWS V14.01,2013-01-17 14:33:00,
2013-01-17 09:35:00,40.9,38.5,30.11,East,94,3.0,5.0,91,0.03,,SKC,0.25,35.00,VWS V14.01,2013-01-17 14:35:00,
2013-01-17 09:38:00,40.7,38.3,30.10,East,92,1.0,6.0,91,0.03,,SKC,0.25,54.00,VWS V14.01,2013-01-17 14:38:00,
2013-01-17 09:40:00,40.7,38.6,30.10,NE,34,3.0,6.0,92,0.03,,SKC,0.25,65.00,VWS V14.01,2013-01-17 14:40:00,
2013-01-17 09:43:00,40.6,38.2,30.10,NNE,28,6.0,6.0,91,0.03,,SKC,0.25,74.00,VWS V14.01,2013-01-17 14:43:00,
2013-01-17 09:45:00,40.4,37.7,30.10,NNE,26,2.0,6.0,90,0.03,,SKC,0.25,72.00,VWS V14.01,2013-01-17 14:45:00,
2013-01-17 09:48:00,40.4,37.4,30.10,NNE,27,2.0,6.0,89,0.03,,SKC,0.25,62.00,VWS V14.01,2013-01-17 14:48:00,
2013-01-17 09:50:00,40.4,37.4,30.10,NNE,26,0.0,6.0,89,0.03,,SKC,0.25,60.00,VWS V14.01,2013-01-17 14:50:00,
2013-01-17 09:51:00,40.4,37.4,30.10,NNE,26,0.0,6.0,89,0.03,,SKC,0.25,60.00,VWS V14.01,2013-01-17 14:51:00,
2013-01-17 09:53:00,40.4,37.4,30.10,NNE,26,2.0,6.0,89,0.03,,SKC,0.25,63.00,VWS V14.01,2013-01-17 14:53:00,
2013-01-17 09:55:00,40.4,37.4,30.10,North,10,2.0,6.0,89,0.03,,SKC,0.25,76.00,VWS V14.01,2013-01-17 14:55:00,
2013-01-17 09:56:00,40.4,37.4,30.10,North,10,1.0,6.0,89,0.04,,SKC,0.26,77.00,VWS V14.01,2013-01-17 14:56:00,
2013-01-17 09:59:00,40.4,37.4,30.11,North,10,2.0,6.0,89,0.04,,SKC,0.26,62.00,VWS V14.01,2013-01-17 14:59:00,
2013-01-17 10:00:00,40.5,37.2,30.11,NNW,344,2.0,6.0,88,0.04,,SKC,0.26,51.00,VWS V14.01,2013-01-17 15:00:00,
2013-01-17 10:01:00,40.5,36.9,30.11,NNW,342,0.0,0.0,87,0.04,,SKC,0.26,46.00,VWS V14.01,2013-01-17 15:01:00,
2013-01-17 10:04:00,40.5,36.9,30.11,NNW,342,0.0,1.0,87,0.04,,SKC,0.26,30.00,VWS V14.01,2013-01-17 15:04:00,
2013-01-17 10:05:00,40.5,36.7,30.11,NNW,342,0.0,1.0,86,0.04,,SKC,0.26,25.00,VWS V14.01,2013-01-17 15:05:00,
2013-01-17 10:06:00,40.5,36.7,30.11,NNW,342,1.0,1.0,86,0.04,,SKC,0.26,25.00,VWS V14.01,2013-01-17 15:06:00,
2013-01-17 10:07:00,40.4,36.5,30.11,NNW,342,0.0,2.0,86,0.04,,SKC,0.26,23.00,VWS V14.01,2013-01-17 15:07:00,
2013-01-17 10:09:00,40.5,36.7,30.11,NNW,342,1.0,4.0,86,0.04,,SKC,0.26,26.00,VWS V14.01,2013-01-17 15:09:00,
2013-01-17 10:10:00,40.5,36.7,30.11,NNW,342,0.0,4.0,86,0.04,,SKC,0.26,32.00,VWS V14.01,2013-01-17 15:10:00,
2013-01-17 10:11:00,40.5,36.7,30.11,NNW,342,0.0,4.0,86,0.04,,SKC,0.26,33.00,VWS V14.01,2013-01-17 15:11:00,
2013-01-17 10:12:00,40.5,36.7,30.11,NNW,342,1.0,4.0,86,0.04,,SKC,0.26,33.00,VWS V14.01,2013-01-17 15:12:00,
2013-01-17 10:14:00,40.5,36.9,30.10,North,355,4.0,6.0,87,0.04,,SKC,0.26,33.00,VWS V14.01,2013-01-17 15:14:00,
2013-01-17 10:16:00,40.5,36.7,30.10,North,360,2.0,6.0,86,0.04,,SKC,0.26,32.00,VWS V14.01,2013-01-17 15:16:00,
2013-01-17 10:17:00,40.5,36.3,30.10,North,360,1.0,6.0,85,0.04,,SKC,0.26,30.00,VWS V14.01,2013-01-17 15:17:00,
2013-01-17 10:19:00,40.5,36.3,30.11,North,360,1.0,6.0,85,0.04,,SKC,0.26,30.00,VWS V14.01,2013-01-17 15:19:00,
2013-01-17 10:21:00,40.5,36.7,30.12,North,360,2.0,6.0,86,0.04,,SKC,0.26,25.00,VWS V14.01,2013-01-17 15:21:00,
2013-01-17 10:22:00,40.5,36.3,30.12,North,360,0.0,6.0,85,0.04,,SKC,0.26,21.00,VWS V14.01,2013-01-17 15:22:00,
2013-01-17 10:24:00,40.4,36.3,30.13,North,360,0.0,6.0,85,0.04,,SKC,0.26,16.00,VWS V14.01,2013-01-17 15:24:00,
2013-01-17 10:26:00,40.4,36.3,30.13,WSW,240,3.0,6.0,85,0.04,,SKC,0.26,18.00,VWS V14.01,2013-01-17 15:26:00,
2013-01-17 10:27:00,40.4,36.5,30.13,WSW,240,3.0,6.0,86,0.04,,SKC,0.26,19.00,VWS V14.01,2013-01-17 15:27:00,
2013-01-17 10:29:00,40.2,37.2,30.14,WSW,238,3.0,6.0,89,0.04,,SKC,0.26,25.00,VWS V14.01,2013-01-17 15:29:00,
2013-01-17 10:31:00,40.1,37.4,30.14,WSW,238,3.0,3.0,90,0.02,,SKC,0.26,32.00,VWS V14.01,2013-01-17 15:31:00,
2013-01-17 10:32:00,40.1,37.4,30.14,WSW,238,2.0,3.0,90,0.02,,SKC,0.26,32.00,VWS V14.01,2013-01-17 15:32:00,
2013-01-17 10:35:00,40.1,37.1,30.13,West,273,1.0,4.0,89,0.02,,SKC,0.26,60.00,VWS V14.01,2013-01-17 15:35:00,
2013-01-17 10:37:00,40.1,37.1,30.13,West,274,1.0,4.0,89,0.02,,SKC,0.26,69.00,VWS V14.01,2013-01-17 15:37:00,
2013-01-17 10:40:00,40.1,36.8,30.12,WNW,288,1.0,5.0,88,0.02,,SKC,0.26,91.00,VWS V14.01,2013-01-17 15:40:00,
2013-01-17 10:42:00,40.1,36.5,30.12,NNW,331,5.0,6.0,87,0.02,,SKC,0.26,116.00,VWS V14.01,2013-01-17 15:42:00,
2013-01-17 10:45:00,40.1,35.7,30.12,NNW,330,5.0,7.0,84,0.03,,SKC,0.27,123.00,VWS V14.01,2013-01-17 15:45:00,
2013-01-17 10:47:00,40.1,35.7,30.11,NNW,334,2.0,7.0,84,0.03,,SKC,0.27,118.00,VWS V14.01,2013-01-17 15:47:00,
2013-01-17 10:48:00,40.0,35.6,30.11,North,351,5.0,7.0,84,0.03,,SKC,0.27,105.00,VWS V14.01,2013-01-17 15:48:00,
2013-01-17 10:50:00,40.0,35.3,30.11,North,355,3.0,7.0,83,0.03,,SKC,0.27,102.00,VWS V14.01,2013-01-17 15:50:00,
2013-01-17 10:52:00,40.1,35.7,30.11,NNW,331,4.0,7.0,84,0.03,,SKC,0.27,100.00,VWS V14.01,2013-01-17 15:52:00,
2013-01-17 10:53:00,40.1,35.7,30.10,NNW,336,4.0,7.0,84,0.03,,SKC,0.27,97.00,VWS V14.01,2013-01-17 15:53:00,
2013-01-17 10:56:00,40.2,36.1,30.10,NNW,337,3.0,7.0,85,0.03,,SKC,0.27,77.00,VWS V14.01,2013-01-17 15:56:00,
2013-01-17 10:57:00,40.2,36.1,30.10,North,5,5.0,7.0,85,0.03,,SKC,0.27,63.00,VWS V14.01,2013-01-17 15:57:00,
2013-01-17 10:58:00,40.2,36.1,30.10,NNE,13,5.0,7.0,85,0.03,,SKC,0.27,63.00,VWS V14.01,2013-01-17 15:58:00,
2013-01-17 11:01:00,40.1,35.4,30.10,North,355,3.0,5.0,83,0.01,,SKC,0.27,44.00,VWS V14.01,2013-01-17 16:01:00,
2013-01-17 11:02:00,40.1,35.1,30.11,North,355,2.0,6.0,82,0.01,,SKC,0.27,37.00,VWS V14.01,2013-01-17 16:02:00,
2013-01-17 11:03:00,40.1,35.1,30.11,North,355,1.0,6.0,82,0.01,,SKC,0.27,37.00,VWS V14.01,2013-01-17 16:03:00,
2013-01-17 11:06:00,40.0,34.7,30.11,NNW,346,3.0,7.0,81,0.01,,SKC,0.27,39.00,VWS V14.01,2013-01-17 16:06:00,
2013-01-17 11:08:00,40.0,34.7,30.11,NNW,346,4.0,7.0,81,0.01,,SKC,0.27,37.00,VWS V14.01,2013-01-17 16:08:00,
2013-01-17 11:11:00,39.9,34.5,30.11,North,350,2.0,7.0,81,0.01,,SKC,0.27,35.00,VWS V14.01,2013-01-17 16:11:00,
2013-01-17 11:13:00,39.9,34.9,30.10,NNW,345,5.0,7.0,82,0.01,,SKC,0.27,40.00,VWS V14.01,2013-01-17 16:13:00,
2013-01-17 11:14:00,39.9,34.9,30.10,North,360,4.0,7.0,82,0.01,,SKC,0.27,44.00,VWS V14.01,2013-01-17 16:14:00,
2013-01-17 11:17:00,39.7,34.7,30.10,North,360,6.0,8.0,82,0.02,,SKC,0.28,63.00,VWS V14.01,2013-01-17 16:17:00,
2013-01-17 11:18:00,39.6,34.6,30.09,North,10,5.0,8.0,82,0.02,,SKC,0.28,76.00,VWS V14.01,2013-01-17 16:18:00,
2013-01-17 11:19:00,39.6,34.9,30.09,NNE,19,6.0,8.0,83,0.02,,SKC,0.28,76.00,VWS V14.01,2013-01-17 16:19:00,
2013-01-17 11:22:00,39.4,35.0,30.08,North,355,6.0,10.0,84,0.03,,SKC,0.29,83.00,VWS V14.01,2013-01-17 16:22:00,
2013-01-17 11:23:00,39.3,34.9,30.08,NNE,22,6.0,10.0,84,0.03,,SKC,0.29,79.00,VWS V14.01,2013-01-17 16:23:00,
2013-01-17 11:24:00,39.3,34.9,30.08,North,11,4.0,10.0,84,0.03,,SKC,0.29,79.00,VWS V14.01,2013-01-17 16:24:00,
2013-01-17 11:27:00,39.2,35.1,30.09,North,360,3.0,10.0,85,0.03,,SKC,0.29,49.00,VWS V14.01,2013-01-17 16:27:00,
2013-01-17 11:28:00,39.1,35.0,30.09,North,360,1.0,10.0,85,0.03,,SKC,0.29,46.00,VWS V14.01,2013-01-17 16:28:00,
2013-01-17 11:29:00,39.1,35.0,30.09,North,360,0.0,10.0,85,0.03,,SKC,0.29,46.00,VWS V14.01,2013-01-17 16:29:00,
2013-01-17 11:32:00,39.1,35.3,30.10,NNW,348,0.0,2.0,86,0.04,,SKC,0.30,35.00,VWS V14.01,2013-01-17 16:32:00,
2013-01-17 11:33:00,39.1,35.3,30.10,NNW,333,4.0,5.0,86,0.04,,SKC,0.30,35.00,VWS V14.01,2013-01-17 16:33:00,
2013-01-17 11:34:00,39.1,35.3,30.10,NNW,344,5.0,5.0,86,0.04,,SKC,0.30,35.00,VWS V14.01,2013-01-17 16:34:00,
2013-01-17 11:35:00,39.0,35.2,30.10,NNW,348,4.0,5.0,86,0.04,,SKC,0.30,35.00,VWS V14.01,2013-01-17 16:35:00,
2013-01-17 11:37:00,39.0,35.5,30.10,NNW,342,2.0,5.0,87,0.05,,SKC,0.31,42.00,VWS V14.01,2013-01-17 16:37:00,
2013-01-17 11:38:00,38.9,35.4,30.10,NW,321,4.0,5.0,87,0.05,,SKC,0.31,46.00,VWS V14.01,2013-01-17 16:38:00,
2013-01-17 11:39:00,38.9,35.4,30.10,NNW,343,3.0,5.0,87,0.05,,SKC,0.31,46.00,VWS V14.01,2013-01-17 16:39:00,
2013-01-17 11:42:00,38.8,35.3,30.10,NNW,340,4.0,6.0,87,0.05,,SKC,0.31,53.00,VWS V14.01,2013-01-17 16:42:00,
2013-01-17 11:43:00,38.8,35.3,30.10,NNW,342,6.0,7.0,87,0.06,,SKC,0.32,49.00,VWS V14.01,2013-01-17 16:43:00,
2013-01-17 11:44:00,38.8,35.3,30.10,NNW,340,6.0,7.0,87,0.06,,SKC,0.32,49.00,VWS V14.01,2013-01-17 16:44:00,
2013-01-17 11:45:00,38.7,35.2,30.10,NNW,328,3.0,7.0,87,0.06,,SKC,0.32,47.00,VWS V14.01,2013-01-17 16:45:00,
2013-01-17 11:48:00,38.6,35.1,30.10,NNW,331,1.0,7.0,87,0.07,,SKC,0.33,47.00,VWS V14.01,2013-01-17 16:48:00,
2013-01-17 11:49:00,38.6,35.4,30.10,NNW,331,2.0,7.0,88,0.07,,SKC,0.33,46.00,VWS V14.01,2013-01-17 16:49:00,
2013-01-17 11:50:00,38.6,35.4,30.10,NNW,331,1.0,7.0,88,0.07,,SKC,0.33,46.00,VWS V14.01,2013-01-17 16:50:00,
2013-01-17 11:53:00,38.6,35.6,30.10,NNW,331,2.0,7.0,89,0.08,,SKC,0.34,40.00,VWS V14.01,2013-01-17 16:53:00,
2013-01-17 11:54:00,38.6,35.6,30.10,NW,304,2.0,7.0,89,0.08,,SKC,0.34,39.00,VWS V14.01,2013-01-17 16:54:00,
2013-01-17 11:55:00,38.5,35.5,30.10,NW,304,3.0,7.0,89,0.09,,SKC,0.35,35.00,VWS V14.01,2013-01-17 16:55:00,
2013-01-17 11:58:00,38.5,35.8,30.09,NNW,348,4.0,7.0,90,0.09,,SKC,0.35,33.00,VWS V14.01,2013-01-17 16:58:00,
2013-01-17 11:59:00,38.4,35.5,30.09,NW,321,3.0,7.0,89,0.09,,SKC,0.35,35.00,VWS V14.01,2013-01-17 16:59:00,
2013-01-17 12:00:00,38.4,35.5,30.09,WNW,300,3.0,7.0,89,0.09,,SKC,0.35,47.00,VWS V14.01,2013-01-17 17:00:00,
2013-01-17 12:03:00,38.4,35.7,30.08,North,350,4.0,5.0,90,0.08,,SKC,0.35,88.00,VWS V14.01,2013-01-17 17:03:00,
2013-01-17 12:04:00,38.4,35.7,30.08,NNW,336,4.0,5.0,90,0.08,,SKC,0.35,113.00,VWS V14.01,2013-01-17 17:04:00,
2013-01-17 12:05:00,38.4,35.7,30.08,NW,311,2.0,5.0,90,0.08,,SKC,0.35,113.00,VWS V14.01,2013-01-17 17:05:00,
2013-01-17 12:08:00,38.4,36.0,30.08,WNW,284,3.0,5.0,91,0.09,,SKC,0.36,107.00,VWS V14.01,2013-01-17 17:08:00,
2013-01-17 12:09:00,38.5,36.1,30.08,NNW,333,3.0,5.0,91,0.09,,SKC,0.36,104.00,VWS V14.01,2013-01-17 17:09:00,
2013-01-17 12:10:00,38.5,36.1,30.08,West,279,3.0,5.0,91,0.09,,SKC,0.36,107.00,VWS V14.01,2013-01-17 17:10:00,
2013-01-17 12:13:00,38.6,36.5,30.08,WNW,284,0.0,5.0,92,0.10,,SKC,0.37,111.00,VWS V14.01,2013-01-17 17:13:00,
2013-01-17 12:14:00,38.7,36.6,30.08,WNW,284,1.0,5.0,92,0.10,,SKC,0.37,111.00,VWS V14.01,2013-01-17 17:14:00,
2013-01-17 12:15:00,38.7,36.6,30.08,WNW,294,2.0,5.0,92,0.10,,SKC,0.37,102.00,VWS V14.01,2013-01-17 17:15:00,
2013-01-17 12:18:00,38.7,36.6,30.08,NNW,334,3.0,5.0,92,0.10,,SKC,0.37,67.00,VWS V14.01,2013-01-17 17:18:00,
2013-01-17 12:19:00,38.7,36.6,30.08,NW,313,3.0,5.0,92,0.10,,SKC,0.37,56.00,VWS V14.01,2013-01-17 17:19:00,
2013-01-17 12:20:00,38.7,36.6,30.08,West,266,2.0,5.0,92,0.10,,SKC,0.37,47.00,VWS V14.01,2013-01-17 17:20:00,
2013-01-17 12:24:00,38.6,36.5,30.08,West,279,2.0,5.0,92,0.10,,SKC,0.37,42.00,VWS V14.01,2013-01-17 17:24:00,
2013-01-17 12:25:00,38.6,36.5,30.08,North,350,3.0,5.0,92,0.10,,SKC,0.37,44.00,VWS V14.01,2013-01-17 17:25:00,
2013-01-17 12:29:00,38.6,36.5,30.08,North,350,0.0,5.0,92,0.11,,SKC,0.38,42.00,VWS V14.01,2013-01-17 17:29:00,
2013-01-17 12:30:00,38.6,36.5,30.08,North,350,0.0,5.0,92,0.11,,SKC,0.38,39.00,VWS V14.01,2013-01-17 17:30:00,
2013-01-17 12:31:00,38.6,36.5,30.08,North,350,0.0,5.0,92,0.11,,SKC,0.38,37.00,VWS V14.01,2013-01-17 17:31:00,
2013-01-17 12:35:00,38.6,36.5,30.07,North,350,0.0,2.0,92,0.10,,SKC,0.39,28.00,VWS V14.01,2013-01-17 17:35:00,
2013-01-17 12:36:00,38.6,36.5,30.06,North,350,1.0,2.0,92,0.10,,SKC,0.39,30.00,VWS V14.01,2013-01-17 17:36:00,
2013-01-17 12:40:00,38.5,36.4,30.05,North,350,2.0,4.0,92,0.10,,SKC,0.39,46.00,VWS V14.01,2013-01-17 17:40:00,
2013-01-17 12:41:00,38.5,36.4,30.05,North,350,1.0,4.0,92,0.10,,SKC,0.39,47.00,VWS V14.01,2013-01-17 17:41:00,
2013-01-17 12:45:00,38.4,36.0,30.05,North,350,2.0,4.0,91,0.12,,SKC,0.41,44.00,VWS V14.01,2013-01-17 17:45:00,
2013-01-17 12:46:00,38.3,35.9,30.05,North,350,2.0,4.0,91,0.12,,SKC,0.41,44.00,VWS V14.01,2013-01-17 17:46:00,
2013-01-17 12:50:00,38.3,35.9,30.06,North,355,2.0,5.0,91,0.13,,SKC,0.42,42.00,VWS V14.01,2013-01-17 17:50:00,
2013-01-17 12:52:00,38.2,35.8,30.07,North,355,1.0,5.0,91,0.13,,SKC,0.42,42.00,VWS V14.01,2013-01-17 17:52:00,
2013-01-17 12:55:00,38.2,35.8,30.07,West,274,1.0,5.0,91,0.13,,SKC,0.42,40.00,VWS V14.01,2013-01-17 17:55:00,
2013-01-17 12:56:00,38.2,35.8,30.07,West,274,0.0,5.0,91,0.14,,SKC,0.43,42.00,VWS V14.01,2013-01-17 17:56:00,
2013-01-17 12:57:00,38.1,36.0,30.07,West,274,1.0,5.0,92,0.14,,SKC,0.43,49.00,VWS V14.01,2013-01-17 17:57:00,
2013-01-17 13:00:00,38.1,36.3,30.06,West,281,1.0,5.0,93,0.14,,SKC,0.43,44.00,VWS V14.01,2013-01-17 18:00:00,
2013-01-17 13:01:00,38.1,36.3,30.06,West,281,0.0,5.0,93,0.14,,SKC,0.43,44.00,VWS V14.01,2013-01-17 18:01:00,
2013-01-17 13:02:00,38.0,36.2,30.06,West,281,0.0,2.0,93,0.08,,SKC,0.43,44.00,VWS V14.01,2013-01-17 18:02:00,
2013-01-17 13:05:00,38.0,36.2,30.05,WNW,296,0.0,3.0,93,0.09,,SKC,0.44,53.00,VWS V14.01,2013-01-17 18:05:00,
2013-01-17 13:06:00,38.1,36.3,30.05,WNW,296,0.0,3.0,93,0.09,,SKC,0.44,58.00,VWS V14.01,2013-01-17 18:06:00,
2013-01-17 13:07:00,38.0,36.2,30.05,WNW,296,1.0,3.0,93,0.10,,SKC,0.45,62.00,VWS V14.01,2013-01-17 18:07:00,
2013-01-17 13:10:00,38.0,36.2,30.05,NNW,346,1.0,3.0,93,0.10,,SKC,0.45,54.00,VWS V14.01,2013-01-17 18:10:00,
2013-01-17 13:11:00,38.1,36.3,30.05,North,355,5.0,5.0,93,0.10,,SKC,0.45,54.00,VWS V14.01,2013-01-17 18:11:00,
2013-01-17 13:13:00,38.0,36.2,30.05,North,351,4.0,6.0,93,0.11,,SKC,0.46,56.00,VWS V14.01,2013-01-17 18:13:00,
2013-01-17 13:15:00,37.9,36.1,30.04,North,5,4.0,6.0,93,0.11,,SKC,0.46,60.00,VWS V14.01,2013-01-17 18:15:00,
2013-01-17 13:16:00,37.9,35.8,30.04,NNW,344,4.0,6.0,92,0.11,,SKC,0.46,63.00,VWS V14.01,2013-01-17 18:16:00,
2013-01-17 13:18:00,37.9,35.8,30.04,NNE,17,4.0,6.0,92,0.12,,SKC,0.47,72.00,VWS V14.01,2013-01-17 18:18:00,
2013-01-17 13:20:00,37.9,35.8,30.04,NNE,14,4.0,6.0,92,0.12,,SKC,0.47,74.00,VWS V14.01,2013-01-17 18:20:00,
2013-01-17 13:21:00,37.9,35.8,30.04,North,355,6.0,6.0,92,0.13,,SKC,0.48,72.00,VWS V14.01,2013-01-17 18:21:00,
2013-01-17 13:23:00,37.8,35.7,30.04,NNW,332,1.0,6.0,92,0.13,,SKC,0.48,70.00,VWS V14.01,2013-01-17 18:23:00,
2013-01-17 13:25:00,37.9,35.8,30.05,NNW,346,0.0,6.0,92,0.13,,SKC,0.48,72.00,VWS V14.01,2013-01-17 18:25:00,
2013-01-17 13:26:00,37.9,35.8,30.05,NNW,346,0.0,6.0,92,0.14,,SKC,0.49,70.00,VWS V14.01,2013-01-17 18:26:00,
2013-01-17 13:27:00,37.9,35.8,30.05,SW,232,2.0,6.0,92,0.14,,SKC,0.49,70.00,VWS V14.01,2013-01-17 18:27:00,
2013-01-17 13:28:00,37.9,35.8,30.05,SW,232,0.0,6.0,92,0.14,,SKC,0.49,74.00,VWS V14.01,2013-01-17 18:28:00,
2013-01-17 13:30:00,38.0,35.9,30.05,SW,232,0.0,6.0,92,0.14,,SKC,0.49,91.00,VWS V14.01,2013-01-17 18:30:00,
2013-01-17 13:31:00,38.1,36.0,30.05,SW,232,0.0,0.0,92,0.11,,SKC,0.49,95.00,VWS V14.01,2013-01-17 18:31:00,
2013-01-17 13:32:00,38.1,36.0,30.05,SW,232,0.0,0.0,92,0.11,,SKC,0.49,95.00,VWS V14.01,2013-01-17 18:32:00,
2013-01-17 13:33:00,38.1,36.0,30.05,SW,232,2.0,2.0,92,0.11,,SKC,0.49,84.00,VWS V14.01,2013-01-17 18:33:00,
2013-01-17 13:35:00,38.7,37.1,30.05,SW,232,0.0,3.0,94,0.11,,SKC,0.49,84.00,VWS V14.01,2013-01-17 18:35:00,
2013-01-17 13:36:00,38.8,37.0,30.05,SW,232,0.0,3.0,93,0.11,,SKC,0.49,83.00,VWS V14.01,2013-01-17 18:36:00,
2013-01-17 13:37:00,38.9,37.0,30.05,SW,232,0.0,3.0,93,0.11,,SKC,0.49,83.00,VWS V14.01,2013-01-17 18:37:00,
2013-01-17 13:38:00,38.9,37.0,30.05,SW,232,0.0,3.0,93,0.12,,SKC,0.50,72.00,VWS V14.01,2013-01-17 18:38:00,
2013-01-17 13:40:00,39.0,36.9,30.05,SW,232,0.0,3.0,92,0.12,,SKC,0.50,58.00,VWS V14.01,2013-01-17 18:40:00,
2013-01-17 13:41:00,39.0,37.2,30.05,SW,232,0.0,3.0,93,0.12,,SKC,0.50,53.00,VWS V14.01,2013-01-17 18:41:00,
2013-01-17 13:42:00,39.0,36.9,30.04,West,275,1.0,3.0,92,0.12,,SKC,0.50,53.00,VWS V14.01,2013-01-17 18:42:00,
2013-01-17 13:43:00,39.0,36.9,30.04,West,281,0.0,3.0,92,0.12,,SKC,0.50,53.00,VWS V14.01,2013-01-17 18:43:00,
2013-01-17 13:46:00,38.8,36.7,30.04,West,281,1.0,3.0,92,0.12,,SKC,0.50,54.00,VWS V14.01,2013-01-17 18:46:00,
2013-01-17 13:47:00,38.8,36.7,30.04,West,281,0.0,3.0,92,0.13,,SKC,0.51,51.00,VWS V14.01,2013-01-17 18:47:00,
2013-01-17 13:48:00,38.7,36.6,30.04,West,281,0.0,3.0,92,0.13,,SKC,0.51,51.00,VWS V14.01,2013-01-17 18:48:00,
2013-01-17 13:51:00,38.7,36.6,30.03,West,281,0.0,3.0,92,0.13,,SKC,0.51,56.00,VWS V14.01,2013-01-17 18:51:00,
2013-01-17 13:52:00,38.7,36.6,30.03,West,281,0.0,3.0,92,0.13,,SKC,0.51,54.00,VWS V14.01,2013-01-17 18:52:00,
2013-01-17 13:53:00,38.7,36.6,30.03,NNE,20,3.0,3.0,92,0.13,,SKC,0.51,54.00,VWS V14.01,2013-01-17 18:53:00,
2013-01-17 13:56:00,38.6,36.8,30.03,NNE,14,1.0,3.0,93,0.14,,SKC,0.52,69.00,VWS V14.01,2013-01-17 18:56:00,
2013-01-17 13:57:00,38.6,36.8,30.03,NNE,19,2.0,3.0,93,0.14,,SKC,0.52,67.00,VWS V14.01,2013-01-17 18:57:00,
2013-01-17 13:58:00,38.6,36.8,30.03,NNE,19,2.0,3.0,93,0.14,,SKC,0.52,60.00,VWS V14.01,2013-01-17 18:58:00,
2013-01-17 14:01:00,38.5,36.7,30.03,NNE,24,9.0,9.0,93,0.10,,SKC,0.53,51.00,VWS V14.01,2013-01-17 19:01:00,
2013-01-17 14:02:00,38.4,36.6,30.03,NNE,12,8.0,9.0,93,0.10,,SKC,0.53,53.00,VWS V14.01,2013-01-17 19:02:00,
2013-01-17 14:03:00,38.4,36.6,30.03,NNE,17,5.0,9.0,93,0.10,,SKC,0.53,53.00,VWS V14.01,2013-01-17 19:03:00,
2013-01-17 14:06:00,38.3,36.2,30.03,NNE,30,6.0,11.0,92,0.10,,SKC,0.53,39.00,VWS V14.01,2013-01-17 19:06:00,
2013-01-17 14:07:00,38.2,36.1,30.03,NNE,28,6.0,11.0,92,0.10,,SKC,0.53,39.00,VWS V14.01,2013-01-17 19:07:00,
2013-01-17 14:08:00,38.2,36.1,30.03,North,355,4.0,11.0,92,0.10,,SKC,0.53,39.00,VWS V14.01,2013-01-17 19:08:00,
2013-01-17 14:09:00,38.2,36.1,30.03,North,360,7.0,11.0,92,0.10,,SKC,0.53,39.00,VWS V14.01,2013-01-17 19:09:00,
2013-01-17 14:11:00,38.1,36.0,30.03,NNW,342,6.0,11.0,92,0.10,,SKC,0.53,39.00,VWS V14.01,2013-01-17 19:11:00,
2013-01-17 14:12:00,38.1,36.0,30.03,North,11,7.0,11.0,92,0.10,,SKC,0.53,32.00,VWS V14.01,2013-01-17 19:12:00,
2013-01-17 14:13:00,38.0,35.9,30.03,North,355,5.0,11.0,92,0.10,,SKC,0.53,26.00,VWS V14.01,2013-01-17 19:13:00,
2013-01-17 14:14:00,38.0,35.9,30.03,NNW,333,6.0,11.0,92,0.10,,SKC,0.53,26.00,VWS V14.01,2013-01-17 19:14:00,
2013-01-17 14:16:00,38.0,35.9,30.06,NNW,337,8.0,11.0,92,0.10,,SKC,0.53,16.00,VWS V14.01,2013-01-17 19:16:00,
2013-01-17 14:17:00,38.0,35.9,30.06,NW,323,6.0,11.0,92,0.10,,SKC,0.53,16.00,VWS V14.01,2013-01-17 19:17:00,
2013-01-17 14:18:00,38.0,35.9,30.06,North,355,4.0,11.0,92,0.10,,SKC,0.53,16.00,VWS V14.01,2013-01-17 19:18:00,
2013-01-17 14:19:00,38.0,35.9,30.06,North,5,6.0,11.0,92,0.10,,SKC,0.53,16.00,VWS V14.01,2013-01-17 19:19:00,
2013-01-17 14:21:00,37.9,35.8,30.07,NNW,344,6.0,11.0,92,0.10,,SKC,0.53,18.00,VWS V14.01,2013-01-17 19:21:00,
2013-01-17 14:22:00,37.9,35.8,30.07,NW,323,3.0,11.0,92,0.10,,SKC,0.53,18.00,VWS V14.01,2013-01-17 19:22:00,
2013-01-17 14:23:00,37.9,35.8,30.07,NW,325,6.0,11.0,92,0.10,,SKC,0.53,18.00,VWS V14.01,2013-01-17 19:23:00,
2013-01-17 14:24:00,37.9,35.8,30.07,NW,306,4.0,11.0,92,0.10,,SKC,0.53,18.00,VWS V14.01,2013-01-17 19:24:00,
2013-01-17 14:26:00,37.9,35.8,30.06,NNW,331,10.0,16.0,92,0.11,,SKC,0.54,18.00,VWS V14.01,2013-01-17 19:26:00,
2013-01-17 14:27:00,37.8,35.7,30.06,North,350,7.0,16.0,92,0.11,,SKC,0.54,16.00,VWS V14.01,2013-01-17 19:27:00,
2013-01-17 14:28:00,37.8,35.7,30.06,North,5,8.0,16.0,92,0.11,,SKC,0.54,16.00,VWS V14.01,2013-01-17 19:28:00,
2013-01-17 14:29:00,37.8,35.7,30.06,NNW,342,9.0,16.0,92,0.11,,SKC,0.54,14.00,VWS V14.01,2013-01-17 19:29:00,
2013-01-17 14:31:00,37.7,35.6,30.06,North,350,9.0,10.0,92,0.05,,SKC,0.54,14.00,VWS V14.01,2013-01-17 19:31:00,
2013-01-17 14:33:00,37.5,35.4,30.04,North,355,6.0,10.0,92,0.05,,SKC,0.54,16.00,VWS V14.01,2013-01-17 19:33:00,
2013-01-17 14:34:00,37.4,35.3,30.04,NNW,336,6.0,10.0,92,0.06,,SKC,0.55,16.00,VWS V14.01,2013-01-17 19:34:00,
2013-01-17 14:37:00,37.2,35.1,30.04,North,355,5.0,10.0,92,0.06,,SKC,0.55,12.00,VWS V14.01,2013-01-17 19:37:00,
2013-01-17 14:38:00,37.1,35.0,30.05,NNW,327,1.0,10.0,92,0.06,,SKC,0.55,9.00,VWS V14.01,2013-01-17 19:38:00,
2013-01-17 14:40:00,37.0,34.9,30.06,NNE,17,0.0,10.0,92,0.06,,SKC,0.55,7.00,VWS V14.01,2013-01-17 19:40:00,
2013-01-17 14:42:00,37.0,34.9,30.06,NNE,17,0.0,10.0,92,0.06,,SKC,0.55,7.00,VWS V14.01,2013-01-17 19:42:00,
2013-01-17 14:43:00,37.0,34.9,30.05,NNE,17,2.0,10.0,92,0.07,,SKC,0.56,7.00,VWS V14.01,2013-01-17 19:43:00,
2013-01-17 14:44:00,36.9,35.1,30.05,NNW,342,3.0,10.0,93,0.07,,SKC,0.56,7.00,VWS V14.01,2013-01-17 19:44:00,
2013-01-17 14:45:00,36.9,35.1,30.05,NW,324,3.0,10.0,93,0.07,,SKC,0.56,7.00,VWS V14.01,2013-01-17 19:45:00,
2013-01-17 14:47:00,36.8,35.0,30.06,North,355,0.0,10.0,93,0.07,,SKC,0.56,7.00,VWS V14.01,2013-01-17 19:47:00,
2013-01-17 14:48:00,36.8,35.0,30.07,North,355,2.0,10.0,93,0.07,,SKC,0.56,9.00,VWS V14.01,2013-01-17 19:48:00,
2013-01-17 14:49:00,36.7,34.9,30.07,North,355,1.0,10.0,93,0.07,,SKC,0.56,9.00,VWS V14.01,2013-01-17 19:49:00,
2013-01-17 14:50:00,36.7,34.9,30.06,North,355,1.0,10.0,93,0.08,,SKC,0.57,9.00,VWS V14.01,2013-01-17 19:50:00,
2013-01-17 14:52:00,36.6,34.8,30.05,North,355,3.0,10.0,93,0.08,,SKC,0.57,11.00,VWS V14.01,2013-01-17 19:52:00,
2013-01-17 14:53:00,36.6,34.8,30.06,North,355,0.0,10.0,93,0.08,,SKC,0.57,11.00,VWS V14.01,2013-01-17 19:53:00,
2013-01-17 14:54:00,36.5,34.7,30.06,North,355,0.0,10.0,93,0.08,,SKC,0.57,11.00,VWS V14.01,2013-01-17 19:54:00,
2013-01-17 14:55:00,36.5,34.7,30.07,North,355,0.0,10.0,93,0.08,,SKC,0.57,11.00,VWS V14.01,2013-01-17 19:55:00,
2013-01-17 14:57:00,36.4,34.6,30.07,West,263,0.0,10.0,93,0.08,,SKC,0.57,11.00,VWS V14.01,2013-01-17 19:57:00,
2013-01-17 14:59:00,36.3,34.5,30.07,WSW,250,1.0,10.0,93,0.08,,SKC,0.57,11.00,VWS V14.01,2013-01-17 19:59:00,
2013-01-17 15:00:00,36.2,34.4,30.07,WSW,250,0.0,10.0,93,0.09,,SKC,0.58,12.00,VWS V14.01,2013-01-17 20:00:00,
2013-01-17 15:02:00,36.1,34.3,30.06,NNW,333,1.0,2.0,93,0.06,,SKC,0.58,12.00,VWS V14.01,2013-01-17 20:02:00,
2013-01-17 15:04:00,36.0,34.2,30.05,NW,315,3.0,4.0,93,0.06,,SKC,0.58,14.00,VWS V14.01,2013-01-17 20:04:00,
2013-01-17 15:05:00,36.0,34.2,30.05,North,355,4.0,7.0,93,0.06,,SKC,0.58,16.00,VWS V14.01,2013-01-17 20:05:00,
2013-01-17 15:07:00,35.9,34.1,30.05,North,9,7.0,8.0,93,0.07,,SKC,0.59,16.00,VWS V14.01,2013-01-17 20:07:00,
2013-01-17 15:09:00,35.8,34.0,30.05,North,355,6.0,8.0,93,0.07,,SKC,0.59,16.00,VWS V14.01,2013-01-17 20:09:00,
2013-01-17 15:10:00,35.8,34.0,30.05,North,355,7.0,10.0,93,0.07,,SKC,0.59,16.00,VWS V14.01,2013-01-17 20:10:00,
2013-01-17 15:12:00,35.8,34.0,30.05,North,355,8.0,10.0,93,0.08,,SKC,0.60,11.00,VWS V14.01,2013-01-17 20:12:00,
2013-01-17 15:14:00,35.8,34.2,30.07,NNW,329,4.0,10.0,94,0.08,,SKC,0.60,9.00,VWS V14.01,2013-01-17 20:14:00,
2013-01-17 15:15:00,35.8,34.2,30.08,NNW,348,1.0,10.0,94,0.08,,SKC,0.60,7.00,VWS V14.01,2013-01-17 20:15:00,
2013-01-17 15:17:00,35.8,34.2,30.08,NNW,331,5.0,10.0,94,0.09,,SKC,0.61,7.00,VWS V14.01,2013-01-17 20:17:00,
2013-01-17 15:19:00,35.8,34.2,30.08,NW,315,6.0,10.0,94,0.09,,SKC,0.61,7.00,VWS V14.01,2013-01-17 20:19:00,
2013-01-17 15:20:00,35.9,34.3,30.07,NNW,348,8.0,10.0,94,0.10,,SKC,0.62,9.00,VWS V14.01,2013-01-17 20:20:00,
2013-01-17 15:23:00,35.9,34.3,30.07,North,355,7.0,10.0,94,0.11,,SKC,0.63,9.00,VWS V14.01,2013-01-17 20:23:00,
2013-01-17 15:24:00,35.9,34.1,30.06,NNW,344,5.0,10.0,93,0.11,,SKC,0.63,11.00,VWS V14.01,2013-01-17 20:24:00,
2013-01-17 15:25:00,35.9,34.1,30.06,NNW,336,4.0,10.0,93,0.11,,SKC,0.63,11.00,VWS V14.01,2013-01-17 20:25:00,
2013-01-17 15:28:00,35.8,34.0,30.06,North,355,4.0,10.0,93,0.11,,SKC,0.63,11.00,VWS V14.01,2013-01-17 20:28:00,
2013-01-17 15:29:00,35.8,34.0,30.06,NNW,344,5.0,10.0,93,0.12,,SKC,0.64,11.00,VWS V14.01,2013-01-17 20:29:00,
2013-01-17 15:30:00,35.8,34.0,30.06,North,355,5.0,10.0,93,0.12,,SKC,0.64,11.00,VWS V14.01,2013-01-17 20:30:00,
2013-01-17 15:31:00,35.8,34.0,30.06,North,355,5.0,10.0,93,0.12,,SKC,0.64,11.00,VWS V14.01,2013-01-17 20:31:00,
2013-01-17 15:33:00,35.8,34.0,30.06,NNW,336,5.0,8.0,93,0.11,,SKC,0.65,11.00,VWS V14.01,2013-01-17 20:33:00,
2013-01-17 15:35:00,35.7,33.9,30.05,NNE,13,5.0,8.0,93,0.11,,SKC,0.65,11.00,VWS V14.01,2013-01-17 20:35:00,
2013-01-17 15:36:00,35.7,33.9,30.05,NNE,26,4.0,9.0,93,0.12,,SKC,0.66,11.00,VWS V14.01,2013-01-17 20:36:00,
2013-01-17 15:38:00,35.7,33.9,30.05,NNW,336,3.0,9.0,93,0.13,,SKC,0.67,7.00,VWS V14.01,2013-01-17 20:38:00,
2013-01-17 15:40:00,35.7,33.9,30.05,North,5,3.0,9.0,93,0.13,,SKC,0.67,9.00,VWS V14.01,2013-01-17 20:40:00,
2013-01-17 15:41:00,35.7,34.2,30.06,North,350,0.0,9.0,94,0.13,,SKC,0.67,7.00,VWS V14.01,2013-01-17 20:41:00,
2013-01-17 15:43:00,35.7,34.2,30.06,North,350,0.0,9.0,94,0.14,,SKC,0.68,7.00,VWS V14.01,2013-01-17 20:43:00,
2013-01-17 15:45:00,35.7,34.2,30.06,NNE,18,1.0,9.0,94,0.14,,SKC,0.68,5.00,VWS V14.01,2013-01-17 20:45:00,
2013-01-17 15:46:00,35.7,34.2,30.06,NE,46,0.0,9.0,94,0.14,,SKC,0.68,5.00,VWS V14.01,2013-01-17 20:46:00,
2013-01-17 15:48:00,35.7,34.2,30.06,North,5,2.0,9.0,94,0.15,,SKC,0.69,7.00,VWS V14.01,2013-01-17 20:48:00,
2013-01-17 15:50:00,35.7,34.2,30.06,NNE,23,4.0,9.0,94,0.15,,SKC,0.69,7.00,VWS V14.01,2013-01-17 20:50:00,
2013-01-17 15:51:00,35.7,34.2,30.06,North,5,3.0,9.0,94,0.15,,SKC,0.69,5.00,VWS V14.01,2013-01-17 20:51:00,
2013-01-17 15:54:00,35.7,34.2,30.06,NNE,31,5.0,9.0,94,0.15,,SKC,0.69,5.00,VWS V14.01,2013-01-17 20:54:00,
2013-01-17 15:55:00,35.7,34.2,30.07,NNE,15,1.0,9.0,94,0.16,,SKC,0.70,0.00,VWS V14.01,2013-01-17 20:55:00,
2013-01-17 15:56:00,35.7,34.2,30.08,NNE,28,2.0,9.0,94,0.16,,SKC,0.70,0.00,VWS V14.01,2013-01-17 20:56:00,
2013-01-17 15:59:00,35.7,34.2,30.08,North,360,5.0,9.0,94,0.17,,SKC,0.71,0.00,VWS V14.01,2013-01-17 20:59:00,
2013-01-17 16:00:00,35.7,34.2,30.06,North,349,4.0,9.0,94,0.17,,SKC,0.71,0.00,VWS V14.01,2013-01-17 21:00:00,
2013-01-17 16:01:00,35.7,34.2,30.06,NNE,23,4.0,5.0,94,0.13,,SKC,0.71,0.00,VWS V14.01,2013-01-17 21:01:00,
2013-01-17 16:04:00,35.7,34.2,30.07,NNE,17,0.0,7.0,94,0.13,,SKC,0.71,0.00,VWS V14.01,2013-01-17 21:04:00,
2013-01-17 16:05:00,35.8,34.2,30.07,NNE,17,0.0,7.0,94,0.14,,SKC,0.72,0.00,VWS V14.01,2013-01-17 21:05:00,
2013-01-17 16:06:00,35.8,34.2,30.08,NW,317,4.0,7.0,94,0.14,,SKC,0.72,0.00,VWS V14.01,2013-01-17 21:06:00,
2013-01-17 16:07:00,35.8,34.2,30.07,North,355,7.0,7.0,94,0.14,,SKC,0.72,0.00,VWS V14.01,2013-01-17 21:07:00,
2013-01-17 16:09:00,35.8,34.2,30.07,North,5,4.0,11.0,94,0.15,,SKC,0.73,0.00,VWS V14.01,2013-01-17 21:09:00,
2013-01-17 16:10:00,35.9,34.3,30.08,NNW,339,7.0,11.0,94,0.15,,SKC,0.73,0.00,VWS V14.01,2013-01-17 21:10:00,
2013-01-17 16:11:00,35.9,34.6,30.08,NNW,335,3.0,11.0,95,0.15,,SKC,0.73,0.00,VWS V14.01,2013-01-17 21:11:00,
2013-01-17 16:12:00,36.0,34.7,30.08,North,355,2.0,11.0,95,0.15,,SKC,0.73,0.00,VWS V14.01,2013-01-17 21:12:00,
2013-01-17 16:14:00,36.0,34.7,30.09,NNE,14,4.0,11.0,95,0.16,,SKC,0.74,0.00,VWS V14.01,2013-01-17 21:14:00,
2013-01-17 16:15:00,36.1,34.8,30.09,North,355,4.0,11.0,95,0.16,,SKC,0.74,0.00,VWS V14.01,2013-01-17 21:15:00,
2013-01-17 16:16:00,36.1,34.8,30.09,NNW,336,0.0,11.0,95,0.17,,SKC,0.75,0.00,VWS V14.01,2013-01-17 21:16:00,
2013-01-17 16:17:00,36.1,34.8,30.09,NNW,329,2.0,11.0,95,0.17,,SKC,0.75,0.00,VWS V14.01,2013-01-17 21:17:00,
2013-01-17 16:19:00,36.2,34.9,30.10,NW,313,1.0,11.0,95,0.17,,SKC,0.75,0.00,VWS V14.01,2013-01-17 21:19:00,
2013-01-17 16:20:00,36.2,34.9,30.10,NW,313,0.0,11.0,95,0.17,,SKC,0.75,0.00,VWS V14.01,2013-01-17 21:20:00,
2013-01-17 16:21:00,36.2,34.9,30.10,NW,313,0.0,11.0,95,0.17,,SKC,0.75,0.00,VWS V14.01,2013-01-17 21:21:00,
2013-01-17 16:22:00,36.2,34.9,30.10,NW,313,1.0,11.0,95,0.18,,SKC,0.76,0.00,VWS V14.01,2013-01-17 21:22:00,
2013-01-17 16:24:00,36.2,34.6,30.09,NW,326,3.0,11.0,94,0.18,,SKC,0.76,0.00,VWS V14.01,2013-01-17 21:24:00,
2013-01-17 16:25:00,36.2,34.9,30.09,NW,306,1.0,11.0,95,0.18,,SKC,0.76,0.00,VWS V14.01,2013-01-17 21:25:00,
2013-01-17 16:27:00,36.2,34.9,30.09,North,355,2.0,11.0,95,0.18,,SKC,0.76,0.00,VWS V14.01,2013-01-17 21:27:00,
2013-01-17 16:29:00,36.1,34.5,30.09,North,351,3.0,11.0,94,0.19,,SKC,0.77,0.00,VWS V14.01,2013-01-17 21:29:00,
2013-01-17 16:31:00,36.0,34.4,30.09,NNW,338,0.0,11.0,94,0.19,,SKC,0.77,0.00,VWS V14.01,2013-01-17 21:31:00,
2013-01-17 16:32:00,36.1,34.8,30.08,NNW,338,2.0,2.0,95,0.13,,SKC,0.77,0.00,VWS V14.01,2013-01-17 21:32:00,
2013-01-17 16:35:00,36.1,34.8,30.08,North,5,3.0,6.0,95,0.14,,SKC,0.78,0.00,VWS V14.01,2013-01-17 21:35:00,
2013-01-17 16:36:00,36.1,34.8,30.09,NNE,15,3.0,6.0,95,0.15,,SKC,0.79,0.00,VWS V14.01,2013-01-17 21:36:00,
2013-01-17 16:37:00,36.0,34.4,30.09,NNW,346,8.0,8.0,94,0.15,,SKC,0.79,0.00,VWS V14.01,2013-01-17 21:37:00,
2013-01-17 16:38:00,36.0,34.4,30.09,NNW,338,10.0,11.0,94,0.15,,SKC,0.79,0.00,VWS V14.01,2013-01-17 21:38:00,
2013-01-17 16:40:00,35.9,34.3,30.09,North,9,7.0,12.0,94,0.16,,SKC,0.80,0.00,VWS V14.01,2013-01-17 21:40:00,
2013-01-17 16:41:00,35.8,34.2,30.09,NNW,336,9.0,12.0,94,0.16,,SKC,0.80,0.00,VWS V14.01,2013-01-17 21:41:00,
2013-01-17 16:43:00,35.7,34.2,30.10,NNW,344,6.0,12.0,94,0.17,,SKC,0.81,0.00,VWS V14.01,2013-01-17 21:43:00,
2013-01-17 16:45:00,35.7,34.2,30.10,NNW,331,6.0,12.0,94,0.18,,SKC,0.82,0.00,VWS V14.01,2013-01-17 21:45:00,
2013-01-17 16:46:00,35.6,34.0,30.10,NNW,339,6.0,12.0,94,0.18,,SKC,0.82,0.00,VWS V14.01,2013-01-17 21:46:00,
2013-01-17 16:48:00,35.6,34.0,30.10,North,350,7.0,12.0,94,0.19,,SKC,0.83,0.00,VWS V14.01,2013-01-17 21:48:00,
2013-01-17 16:50:00,35.5,34.0,30.11,NNW,342,4.0,12.0,94,0.19,,SKC,0.83,0.00,VWS V14.01,2013-01-17 21:50:00,
2013-01-17 16:51:00,35.5,34.0,30.11,North,355,1.0,12.0,94,0.19,,SKC,0.83,0.00,VWS V14.01,2013-01-17 21:51:00,
2013-01-17 16:53:00,35.5,34.0,30.11,North,355,1.0,12.0,94,0.20,,SKC,0.84,0.00,VWS V14.01,2013-01-17 21:53:00,
2013-01-17 16:55:00,35.5,34.0,30.11,NW,315,0.0,12.0,94,0.21,,SKC,0.85,0.00,VWS V14.01,2013-01-17 21:55:00,
2013-01-17 16:56:00,35.5,34.0,30.11,NW,315,0.0,12.0,94,0.21,,SKC,0.85,0.00,VWS V14.01,2013-01-17 21:56:00,
2013-01-17 16:58:00,35.5,34.0,30.11,NNE,22,0.0,12.0,94,0.22,,SKC,0.86,0.00,VWS V14.01,2013-01-17 21:58:00,
2013-01-17 17:00:00,35.5,34.2,30.11,NE,47,1.0,12.0,95,0.23,,SKC,0.87,0.00,VWS V14.01,2013-01-17 22:00:00,
2013-01-17 17:01:00,35.5,34.2,30.11,East,86,3.0,3.0,95,0.16,,SKC,0.87,0.00,VWS V14.01,2013-01-17 22:01:00,
2013-01-17 17:03:00,35.5,34.2,30.10,NE,48,1.0,3.0,95,0.16,,SKC,0.87,0.00,VWS V14.01,2013-01-17 22:03:00,
2013-01-17 17:04:00,35.5,34.2,30.10,NE,48,1.0,3.0,95,0.16,,SKC,0.87,0.00,VWS V14.01,2013-01-17 22:04:00,
2013-01-17 17:05:00,35.5,34.2,30.11,NE,48,0.0,3.0,95,0.16,,SKC,0.87,0.00,VWS V14.01,2013-01-17 22:05:00,
2013-01-17 17:06:00,35.5,34.2,30.11,ESE,117,1.0,3.0,95,0.17,,SKC,0.88,0.00,VWS V14.01,2013-01-17 22:06:00,
2013-01-17 17:08:00,35.4,34.1,30.11,ESE,117,0.0,3.0,95,0.18,,SKC,0.89,0.00,VWS V14.01,2013-01-17 22:08:00,
2013-01-17 17:09:00,35.4,34.1,30.10,ESE,117,1.0,3.0,95,0.18,,SKC,0.89,0.00,VWS V14.01,2013-01-17 22:09:00,
2013-01-17 17:10:00,35.4,34.1,30.10,ENE,64,5.0,7.0,95,0.18,,SKC,0.89,0.00,VWS V14.01,2013-01-17 22:10:00,
2013-01-17 17:11:00,35.4,34.1,30.09,NE,50,4.0,7.0,95,0.18,,SKC,0.89,0.00,VWS V14.01,2013-01-17 22:11:00,
2013-01-17 17:13:00,35.3,34.0,30.10,East,94,0.0,7.0,95,0.19,,SKC,0.90,0.00,VWS V14.01,2013-01-17 22:13:00,
2013-01-17 17:14:00,35.3,34.0,30.10,ENE,76,2.0,7.0,95,0.19,,SKC,0.90,0.00,VWS V14.01,2013-01-17 22:14:00,
2013-01-17 17:16:00,35.3,34.0,30.10,NE,38,2.0,7.0,95,0.19,,SKC,0.90,0.00,VWS V14.01,2013-01-17 22:16:00,
2013-01-17 17:18:00,35.2,33.9,30.10,NNE,30,0.0,7.0,95,0.20,,SKC,0.91,0.00,VWS V14.01,2013-01-17 22:18:00,
2013-01-17 17:20:00,35.1,33.8,30.11,NNE,30,1.0,7.0,95,0.20,,SKC,0.91,0.00,VWS V14.01,2013-01-17 22:20:00,
2013-01-17 17:21:00,35.1,33.8,30.11,NNE,31,2.0,7.0,95,0.20,,SKC,0.91,0.00,VWS V14.01,2013-01-17 22:21:00,
2013-01-17 17:22:00,35.1,33.8,30.11,North,360,5.0,7.0,95,0.20,,SKC,0.91,0.00,VWS V14.01,2013-01-17 22:22:00,
2013-01-17 17:24:00,35.1,33.8,30.11,North,11,4.0,7.0,95,0.20,,SKC,0.91,0.00,VWS V14.01,2013-01-17 22:24:00,
2013-01-17 17:26:00,35.0,33.7,30.13,North,355,2.0,7.0,95,0.21,,SKC,0.92,0.00,VWS V14.01,2013-01-17 22:26:00,
2013-01-17 17:27:00,35.0,33.7,30.13,North,5,5.0,8.0,95,0.21,,SKC,0.92,0.00,VWS V14.01,2013-01-17 22:27:00,
2013-01-17 17:29:00,35.0,33.7,30.13,North,5,4.0,8.0,95,0.22,,SKC,0.93,0.00,VWS V14.01,2013-01-17 22:29:00,
2013-01-17 17:31:00,35.0,33.7,30.12,North,5,0.0,8.0,95,0.22,,SKC,0.93,0.00,VWS V14.01,2013-01-17 22:31:00,
2013-01-17 17:32:00,35.0,33.7,30.13,NNE,19,2.0,5.0,95,0.16,,SKC,0.93,0.00,VWS V14.01,2013-01-17 22:32:00,
2013-01-17 17:34:00,35.0,33.7,30.13,NNE,19,3.0,5.0,95,0.17,,SKC,0.94,0.00,VWS V14.01,2013-01-17 22:34:00,
2013-01-17 17:36:00,35.0,33.7,30.13,NNE,19,3.0,5.0,95,0.17,,SKC,0.94,0.00,VWS V14.01,2013-01-17 22:36:00,
2013-01-17 17:37:00,34.9,33.6,30.13,NNE,19,2.0,5.0,95,0.17,,SKC,0.94,0.00,VWS V14.01,2013-01-17 22:37:00,
2013-01-17 17:39:00,34.9,33.6,30.13,NNE,19,1.0,5.0,95,0.17,,SKC,0.94,0.00,VWS V14.01,2013-01-17 22:39:00,
2013-01-17 17:41:00,34.8,33.5,30.12,NNE,30,3.0,5.0,95,0.18,,SKC,0.95,0.00,VWS V14.01,2013-01-17 22:41:00,
2013-01-17 17:42:00,34.8,33.5,30.12,NE,36,4.0,5.0,95,0.18,,SKC,0.95,0.00,VWS V14.01,2013-01-17 22:42:00,
2013-01-17 17:43:00,34.7,33.4,30.11,NNE,28,5.0,7.0,95,0.18,,SKC,0.95,0.00,VWS V14.01,2013-01-17 22:43:00,
2013-01-17 17:44:00,34.7,33.4,30.12,NNE,19,5.0,7.0,95,0.18,,SKC,0.95,0.00,VWS V14.01,2013-01-17 22:44:00,
2013-01-17 17:46:00,34.7,33.4,30.12,NNE,22,2.0,7.0,95,0.18,,SKC,0.95,0.00,VWS V14.01,2013-01-17 22:46:00,
2013-01-17 17:47:00,34.6,33.3,30.12,North,360,3.0,7.0,95,0.18,,SKC,0.95,0.00,VWS V14.01,2013-01-17 22:47:00,
2013-01-17 17:48:00,34.6,33.3,30.13,NNE,22,2.0,7.0,95,0.18,,SKC,0.95,0.00,VWS V14.01,2013-01-17 22:48:00,
2013-01-17 17:49:00,34.6,33.3,30.13,NNE,19,3.0,7.0,95,0.18,,SKC,0.95,0.00,VWS V14.01,2013-01-17 22:49:00,
2013-01-17 17:51:00,34.5,33.2,30.13,NNE,24,2.0,7.0,95,0.18,,SKC,0.95,0.00,VWS V14.01,2013-01-17 22:51:00,
2013-01-17 17:52:00,34.5,33.2,30.13,NNE,22,3.0,7.0,95,0.18,,SKC,0.95,0.00,VWS V14.01,2013-01-17 22:52:00,
2013-01-17 17:53:00,34.4,33.1,30.13,NNE,22,3.0,7.0,95,0.19,,SKC,0.96,0.00,VWS V14.01,2013-01-17 22:53:00,
2013-01-17 17:54:00,34.4,33.1,30.13,NNE,22,1.0,7.0,95,0.19,,SKC,0.96,0.00,VWS V14.01,2013-01-17 22:54:00,
2013-01-17 17:56:00,34.4,33.1,30.12,NNE,22,1.0,7.0,95,0.19,,SKC,0.96,0.00,VWS V14.01,2013-01-17 22:56:00,
2013-01-17 17:57:00,34.4,33.1,30.12,NNE,22,1.0,7.0,95,0.19,,SKC,0.96,0.00,VWS V14.01,2013-01-17 22:57:00,
2013-01-17 17:58:00,34.4,33.1,30.12,North,5,4.0,7.0,95,0.20,,SKC,0.97,0.00,VWS V14.01,2013-01-17 22:58:00,
2013-01-17 17:59:00,34.3,33.0,30.12,North,5,1.0,7.0,95,0.20,,SKC,0.97,0.00,VWS V14.01,2013-01-17 22:59:00,
2013-01-17 18:01:00,34.3,33.0,30.12,North,5,2.0,2.0,95,0.10,,SKC,0.97,0.00,VWS V14.01,2013-01-17 23:01:00,
2013-01-17 18:02:00,34.3,33.0,30.12,North,5,2.0,2.0,95,0.10,,SKC,0.97,0.00,VWS V14.01,2013-01-17 23:02:00,
2013-01-17 18:03:00,34.3,33.0,30.12,North,360,3.0,3.0,95,0.10,,SKC,0.97,0.00,VWS V14.01,2013-01-17 23:03:00,
2013-01-17 18:20:00,34.4,33.4,30.09,North,355,4.0,7.0,96,0.13,,SKC,1.00,0.00,VWS V14.01,2013-01-17 23:20:00,
2013-01-17 18:25:00,34.6,33.6,30.08,NNE,22,2.0,7.0,96,0.14,,SKC,1.01,0.00,VWS V14.01,2013-01-17 23:25:00,
2013-01-17 18:30:00,34.7,33.7,30.08,NNE,19,3.0,7.0,96,0.15,,SKC,1.02,0.00,VWS V14.01,2013-01-17 23:30:00,
2013-01-17 18:31:00,34.7,33.7,30.08,NNE,19,1.0,7.0,96,0.15,,SKC,1.02,0.00,VWS V14.01,2013-01-17 23:31:00,
2013-01-17 18:35:00,34.8,33.8,30.09,NNE,19,0.0,5.0,96,0.10,,SKC,1.03,0.00,VWS V14.01,2013-01-17 23:35:00,
2013-01-17 18:36:00,34.8,33.8,30.09,NNE,19,0.0,5.0,96,0.10,,SKC,1.03,0.00,VWS V14.01,2013-01-17 23:36:00,
2013-01-17 18:40:00,34.8,33.8,30.08,North,355,1.0,5.0,96,0.10,,SKC,1.03,0.00,VWS V14.01,2013-01-17 23:40:00,
2013-01-17 18:41:00,34.8,33.8,30.08,NNE,31,2.0,5.0,96,0.10,,SKC,1.03,0.00,VWS V14.01,2013-01-17 23:41:00,
2013-01-17 18:45:00,34.8,33.8,30.09,ENE,65,0.0,5.0,96,0.11,,SKC,1.04,0.00,VWS V14.01,2013-01-17 23:45:00,
2013-01-17 18:46:00,34.8,33.8,30.09,ENE,65,0.0,5.0,96,0.11,,SKC,1.04,0.00,VWS V14.01,2013-01-17 23:46:00,
2013-01-17 18:50:00,34.7,33.7,30.09,ESE,106,0.0,5.0,96,0.12,,SKC,1.05,0.00,VWS V14.01,2013-01-17 23:50:00,
2013-01-17 18:51:00,34.6,33.6,30.09,ESE,106,0.0,5.0,96,0.12,,SKC,1.05,0.00,VWS V14.01,2013-01-17 23:51:00,
2013-01-17 18:55:00,34.5,33.5,30.09,ESE,106,1.0,5.0,96,0.12,,SKC,1.05,0.00,VWS V14.01,2013-01-17 23:55:00,
2013-01-17 18:56:00,34.4,33.4,30.09,ESE,106,1.0,5.0,96,0.12,,SKC,1.05,0.00,VWS V14.01,2013-01-17 23:56:00,
2013-01-17 19:00:00,34.3,33.3,30.09,ESE,106,0.0,5.0,96,0.13,,SKC,1.06,0.00,VWS V14.01,2013-01-18 00:00:00,
2013-01-17 19:01:00,34.3,33.3,30.09,ESE,106,0.0,5.0,96,0.13,,SKC,1.06,0.00,VWS V14.01,2013-01-18 00:01:00,
2013-01-17 19:05:00,34.3,33.3,30.10,ESE,106,2.0,2.0,96,0.10,,SKC,1.07,0.00,VWS V14.01,2013-01-18 00:05:00,
2013-01-17 19:06:00,34.3,33.3,30.10,ESE,106,1.0,2.0,96,0.10,,SKC,1.07,0.00,VWS V14.01,2013-01-18 00:06:00,
2013-01-17 19:10:00,34.2,33.2,30.10,ESE,106,0.0,2.0,96,0.10,,SKC,1.07,0.00,VWS V14.01,2013-01-18 00:10:00,
2013-01-17 19:11:00,34.2,33.2,30.09,ESE,106,1.0,2.0,96,0.10,,SKC,1.07,0.00,VWS V14.01,2013-01-18 00:11:00,
2013-01-17 19:16:00,34.1,33.1,30.08,ESE,106,0.0,2.0,96,0.10,,SKC,1.07,0.00,VWS V14.01,2013-01-18 00:16:00,
2013-01-17 19:17:00,34.1,33.1,30.08,ESE,106,0.0,2.0,96,0.10,,SKC,1.07,0.00,VWS V14.01,2013-01-18 00:17:00,
2013-01-17 19:21:00,34.1,33.1,30.08,ESE,106,0.0,2.0,96,0.11,,SKC,1.08,0.00,VWS V14.01,2013-01-18 00:21:00,
2013-01-17 19:22:00,34.1,33.1,30.08,ESE,106,0.0,2.0,96,0.11,,SKC,1.08,0.00,VWS V14.01,2013-01-18 00:22:00,
2013-01-17 19:26:00,34.1,33.1,30.09,ESE,102,0.0,3.0,96,0.11,,SKC,1.08,0.00,VWS V14.01,2013-01-18 00:26:00,
2013-01-17 19:27:00,34.1,33.1,30.09,ESE,102,1.0,3.0,96,0.11,,SKC,1.08,0.00,VWS V14.01,2013-01-18 00:27:00,
2013-01-17 19:31:00,34.1,33.1,30.10,ESE,102,1.0,1.0,96,0.06,,SKC,1.08,0.00,VWS V14.01,2013-01-18 00:31:00,
2013-01-17 19:32:00,34.1,33.1,30.10,ESE,102,1.0,1.0,96,0.06,,SKC,1.08,0.00,VWS V14.01,2013-01-18 00:32:00,
2013-01-17 19:36:00,34.0,33.0,30.09,ESE,111,3.0,4.0,96,0.06,,SKC,1.08,0.00,VWS V14.01,2013-01-18 00:36:00,
2013-01-17 19:37:00,34.0,33.2,30.09,ESE,116,3.0,5.0,97,0.06,,SKC,1.08,0.00,VWS V14.01,2013-01-18 00:37:00,
2013-01-17 19:41:00,34.0,33.0,30.09,ESE,116,2.0,5.0,96,0.06,,SKC,1.08,0.00,VWS V14.01,2013-01-18 00:41:00,
2013-01-17 19:42:00,34.0,33.0,30.09,ESE,116,3.0,5.0,96,0.06,,SKC,1.08,0.00,VWS V14.01,2013-01-18 00:42:00,
2013-01-17 19:47:00,33.9,32.9,30.09,SE,140,0.0,6.0,96,0.07,,SKC,1.09,0.00,VWS V14.01,2013-01-18 00:47:00,
2013-01-17 19:52:00,33.8,33.0,30.10,NNW,329,0.0,6.0,97,0.07,,SKC,1.09,0.00,VWS V14.01,2013-01-18 00:52:00,
2013-01-17 19:53:00,33.8,33.0,30.10,NNW,329,0.0,6.0,97,0.07,,SKC,1.09,0.00,VWS V14.01,2013-01-18 00:53:00,
2013-01-17 19:57:00,33.9,33.1,30.09,NNW,329,0.0,6.0,97,0.07,,SKC,1.09,0.00,VWS V14.01,2013-01-18 00:57:00,
2013-01-17 19:58:00,33.9,33.1,30.09,NNW,329,0.0,6.0,97,0.07,,SKC,1.09,0.00,VWS V14.01,2013-01-18 00:58:00,
2013-01-17 20:02:00,33.8,33.0,30.09,NNW,329,0.0,0.0,97,0.03,,SKC,1.09,0.00,VWS V14.01,2013-01-18 01:02:00,
2013-01-17 20:03:00,33.9,33.1,30.09,NNW,329,0.0,0.0,97,0.03,,SKC,1.09,0.00,VWS V14.01,2013-01-18 01:03:00,
2013-01-17 20:07:00,33.9,33.1,30.09,NNW,329,0.0,0.0,97,0.03,,SKC,1.09,0.00,VWS V14.01,2013-01-18 01:07:00,
2013-01-17 20:08:00,33.9,33.1,30.09,NNW,329,0.0,0.0,97,0.03,,SKC,1.09,0.00,VWS V14.01,2013-01-18 01:08:00,
2013-01-17 20:12:00,33.9,33.1,30.10,NNW,329,0.0,2.0,97,0.03,,SKC,1.09,0.00,VWS V14.01,2013-01-18 01:12:00,
2013-01-17 20:13:00,33.9,33.1,30.10,NNW,329,2.0,2.0,97,0.03,,SKC,1.09,0.00,VWS V14.01,2013-01-18 01:13:00,
2013-01-17 20:17:00,33.9,33.1,30.10,NNW,329,0.0,2.0,97,0.03,,SKC,1.09,0.00,VWS V14.01,2013-01-18 01:17:00,
2013-01-17 20:18:00,33.9,33.1,30.10,NNW,329,0.0,2.0,97,0.03,,SKC,1.09,0.00,VWS V14.01,2013-01-18 01:18:00,
2013-01-17 20:19:00,33.9,33.1,30.09,NNW,329,0.0,2.0,97,0.03,,SKC,1.09,0.00,VWS V14.01,2013-01-18 01:19:00,
2013-01-17 20:22:00,33.9,33.1,30.07,NNW,329,0.0,2.0,97,0.04,,SKC,1.10,0.00,VWS V14.01,2013-01-18 01:22:00,
2013-01-17 20:23:00,33.8,33.0,30.07,NNW,329,0.0,2.0,97,0.04,,SKC,1.10,0.00,VWS V14.01,2013-01-18 01:23:00,
2013-01-17 20:24:00,33.8,33.0,30.07,NNW,329,0.0,2.0,97,0.04,,SKC,1.10,0.00,VWS V14.01,2013-01-18 01:24:00,
2013-01-17 20:27:00,33.8,33.0,30.08,NNW,329,0.0,2.0,97,0.04,,SKC,1.10,0.00,VWS V14.01,2013-01-18 01:27:00,
2013-01-17 20:28:00,33.8,33.0,30.08,NNW,329,2.0,2.0,97,0.04,,SKC,1.10,0.00,VWS V14.01,2013-01-18 01:28:00,
2013-01-17 20:29:00,33.8,33.0,30.08,SE,138,4.0,4.0,97,0.04,,SKC,1.10,0.00,VWS V14.01,2013-01-18 01:29:00,
2013-01-17 20:32:00,33.9,33.1,30.10,SE,137,0.0,2.0,97,0.02,,SKC,1.10,0.00,VWS V14.01,2013-01-18 01:32:00,
2013-01-17 20:33:00,33.9,33.1,30.10,SE,137,0.0,2.0,97,0.02,,SKC,1.10,0.00,VWS V14.01,2013-01-18 01:33:00,
2013-01-17 20:34:00,33.9,33.1,30.10,SE,137,0.0,2.0,97,0.02,,SKC,1.10,0.00,VWS V14.01,2013-01-18 01:34:00,
2013-01-17 20:38:00,33.9,33.1,30.08,SE,137,0.0,2.0,97,0.02,,SKC,1.10,0.00,VWS V14.01,2013-01-18 01:38:00,
2013-01-17 20:39:00,33.9,33.1,30.08,SE,137,0.0,2.0,97,0.02,,SKC,1.10,0.00,VWS V14.01,2013-01-18 01:39:00,
2013-01-17 20:43:00,33.9,33.1,30.08,SE,137,1.0,2.0,97,0.02,,SKC,1.10,0.00,VWS V14.01,2013-01-18 01:43:00,
2013-01-17 20:44:00,33.9,33.1,30.09,SE,137,0.0,2.0,97,0.02,,SKC,1.10,0.00,VWS V14.01,2013-01-18 01:44:00,
2013-01-17 20:48:00,33.9,33.1,30.10,West,273,2.0,3.0,97,0.02,,SKC,1.10,0.00,VWS V14.01,2013-01-18 01:48:00,
2013-01-17 20:49:00,33.8,33.0,30.10,WNW,290,1.0,4.0,97,0.02,,SKC,1.10,0.00,VWS V14.01,2013-01-18 01:49:00,
2013-01-17 20:50:00,33.9,33.1,30.10,WNW,291,1.0,4.0,97,0.02,,SKC,1.10,0.00,VWS V14.01,2013-01-18 01:50:00,
2013-01-17 20:53:00,33.9,33.1,30.09,WNW,291,0.0,4.0,97,0.02,,SKC,1.10,0.00,VWS V14.01,2013-01-18 01:53:00,
2013-01-17 20:54:00,33.9,33.1,30.09,WNW,291,0.0,4.0,97,0.02,,SKC,1.10,0.00,VWS V14.01,2013-01-18 01:54:00,
2013-01-17 20:55:00,33.9,33.1,30.09,WNW,291,0.0,4.0,97,0.02,,SKC,1.10,0.00,VWS V14.01,2013-01-18 01:55:00,
2013-01-17 20:58:00,33.9,33.1,30.09,WNW,291,0.0,4.0,97,0.02,,SKC,1.10,0.00,VWS V14.01,2013-01-18 01:58:00,
2013-01-17 20:59:00,33.9,33.1,30.09,WNW,291,0.0,4.0,97,0.02,,SKC,1.10,0.00,VWS V14.01,2013-01-18 01:59:00,
2013-01-17 21:00:00,33.9,33.1,30.09,WNW,290,0.0,4.0,97,0.02,,SKC,1.10,0.00,VWS V14.01,2013-01-18 02:00:00,
2013-01-17 21:03:00,34.0,33.2,30.11,WNW,291,0.0,0.0,97,0.01,,SKC,1.10,0.00,VWS V14.01,2013-01-18 02:03:00,
2013-01-17 21:04:00,34.1,33.3,30.11,WNW,290,0.0,0.0,97,0.01,,SKC,1.10,0.00,VWS V14.01,2013-01-18 02:04:00,
2013-01-17 21:05:00,34.1,33.6,30.11,WNW,290,0.0,0.0,98,0.01,,SKC,1.10,0.00,VWS V14.01,2013-01-18 02:05:00,
2013-01-17 21:08:00,34.1,33.6,30.11,WNW,290,1.0,1.0,98,0.01,,SKC,1.10,0.00,VWS V14.01,2013-01-18 02:08:00,
2013-01-17 21:09:00,34.1,33.6,30.10,WNW,290,1.0,1.0,98,0.02,,SKC,1.11,0.00,VWS V14.01,2013-01-18 02:09:00,
2013-01-17 21:10:00,34.1,33.6,30.10,WNW,290,1.0,1.0,98,0.02,,SKC,1.11,0.00,VWS V14.01,2013-01-18 02:10:00,
2013-01-17 21:11:00,34.1,33.6,30.10,WNW,290,2.0,2.0,98,0.02,,SKC,1.11,0.00,VWS V14.01,2013-01-18 02:11:00,
2013-01-17 21:14:00,34.1,33.3,30.09,ESE,114,2.0,3.0,97,0.02,,SKC,1.11,0.00,VWS V14.01,2013-01-18 02:14:00,
2013-01-17 21:16:00,34.1,33.3,30.09,ESE,115,0.0,3.0,97,0.02,,SKC,1.11,0.00,VWS V14.01,2013-01-18 02:16:00,
2013-01-17 21:19:00,34.1,33.3,30.08,ENE,78,0.0,3.0,97,0.02,,SKC,1.11,0.00,VWS V14.01,2013-01-18 02:19:00,
2013-01-17 21:20:00,34.1,33.3,30.08,ENE,78,0.0,3.0,97,0.02,,SKC,1.11,0.00,VWS V14.01,2013-01-18 02:20:00,
2013-01-17 21:21:00,34.1,33.3,30.08,ENE,78,0.0,3.0,97,0.02,,SKC,1.11,0.00,VWS V14.01,2013-01-18 02:21:00,
2013-01-17 21:24:00,34.1,33.3,30.08,ENE,76,1.0,3.0,97,0.02,,SKC,1.11,0.00,VWS V14.01,2013-01-18 02:24:00,
2013-01-17 21:25:00,34.1,33.3,30.09,ENE,75,2.0,3.0,97,0.02,,SKC,1.11,0.00,VWS V14.01,2013-01-18 02:25:00,
2013-01-17 21:26:00,34.1,33.6,30.09,NE,51,3.0,3.0,98,0.02,,SKC,1.11,0.00,VWS V14.01,2013-01-18 02:26:00,
2013-01-17 21:29:00,34.2,33.7,30.09,NE,56,0.0,4.0,98,0.02,,SKC,1.11,0.00,VWS V14.01,2013-01-18 02:29:00,
2013-01-17 21:30:00,34.2,33.7,30.09,NE,56,1.0,4.0,98,0.02,,SKC,1.11,0.00,VWS V14.01,2013-01-18 02:30:00,
2013-01-17 21:31:00,34.3,33.8,30.09,NE,56,1.0,4.0,98,0.02,,SKC,1.11,0.00,VWS V14.01,2013-01-18 02:31:00,
2013-01-17 21:35:00,34.4,33.9,30.07,NNE,26,6.0,6.0,98,0.01,,SKC,1.11,0.00,VWS V14.01,2013-01-18 02:35:00,
2013-01-17 21:36:00,34.4,33.9,30.07,NNE,17,4.0,6.0,98,0.01,,SKC,1.11,0.00,VWS V14.01,2013-01-18 02:36:00,
2013-01-17 21:40:00,34.5,34.0,30.05,NNW,348,6.0,9.0,98,0.01,,SKC,1.11,0.00,VWS V14.01,2013-01-18 02:40:00,
2013-01-17 21:41:00,34.6,34.1,30.05,North,360,7.0,10.0,98,0.01,,SKC,1.11,0.00,VWS V14.01,2013-01-18 02:41:00,
2013-01-17 21:45:00,35.0,34.5,30.04,North,355,6.0,12.0,98,0.01,,SKC,1.11,0.00,VWS V14.01,2013-01-18 02:45:00,
2013-01-17 21:46:00,35.1,34.6,30.04,North,355,5.0,12.0,98,0.01,,SKC,1.11,0.00,VWS V14.01,2013-01-18 02:46:00,
2013-01-17 21:50:00,35.5,35.0,30.08,NNE,13,0.0,12.0,98,0.01,,SKC,1.11,0.00,VWS V14.01,2013-01-18 02:50:00,
2013-01-17 21:51:00,35.5,35.0,30.08,NNE,13,0.0,12.0,98,0.01,,SKC,1.11,0.00,VWS V14.01,2013-01-18 02:51:00,
2013-01-17 21:55:00,35.8,35.3,30.09,North,11,7.0,13.0,98,0.01,,SKC,1.11,0.00,VWS V14.01,2013-01-18 02:55:00,
2013-01-17 21:56:00,35.9,35.4,30.09,NNW,348,8.0,13.0,98,0.02,,SKC,1.12,0.00,VWS V14.01,2013-01-18 02:56:00,
2013-01-17 21:57:00,36.0,35.5,30.09,North,355,5.0,13.0,98,0.02,,SKC,1.12,0.00,VWS V14.01,2013-01-18 02:57:00,
2013-01-17 22:00:00,36.4,35.6,30.08,NNW,337,7.0,13.0,97,0.02,,SKC,1.12,0.00,VWS V14.01,2013-01-18 03:00:00,
2013-01-17 22:01:00,36.4,35.6,30.08,NNW,336,6.0,13.0,97,0.02,,SKC,1.12,0.00,VWS V14.01,2013-01-18 03:01:00,
2013-01-17 22:02:00,36.5,35.7,30.08,North,350,7.0,9.0,97,0.02,,SKC,1.12,0.00,VWS V14.01,2013-01-18 03:02:00,
2013-01-17 22:05:00,36.8,36.0,30.09,NW,322,6.0,11.0,97,0.02,,SKC,1.12,0.00,VWS V14.01,2013-01-18 03:05:00,
2013-01-17 22:06:00,36.9,35.9,30.10,NNW,338,6.0,11.0,96,0.02,,SKC,1.12,0.00,VWS V14.01,2013-01-18 03:06:00,
2013-01-17 22:07:00,36.9,35.9,30.10,NW,307,6.0,11.0,96,0.02,,SKC,1.12,0.00,VWS V14.01,2013-01-18 03:07:00,
2013-01-17 22:10:00,37.0,35.7,30.11,WNW,295,4.0,11.0,95,0.03,,SKC,1.13,0.00,VWS V14.01,2013-01-18 03:10:00,
2013-01-17 22:11:00,37.0,35.7,30.11,WNW,298,2.0,11.0,95,0.03,,SKC,1.13,0.00,VWS V14.01,2013-01-18 03:11:00,
2013-01-17 22:12:00,37.0,35.7,30.11,West,261,3.0,11.0,95,0.03,,SKC,1.13,0.00,VWS V14.01,2013-01-18 03:12:00,
2013-01-17 22:16:00,37.0,35.4,30.11,NW,324,3.0,11.0,94,0.03,,SKC,1.13,0.00,VWS V14.01,2013-01-18 03:16:00,
2013-01-17 22:17:00,37.0,35.4,30.11,WNW,299,3.0,11.0,94,0.03,,SKC,1.13,0.00,VWS V14.01,2013-01-18 03:17:00,
2013-01-17 22:21:00,36.9,35.3,30.12,NNW,338,7.0,11.0,94,0.03,,SKC,1.13,0.00,VWS V14.01,2013-01-18 03:21:00,
2013-01-17 22:22:00,36.9,35.3,30.13,NW,325,5.0,11.0,94,0.03,,SKC,1.13,0.00,VWS V14.01,2013-01-18 03:22:00,
2013-01-17 22:26:00,36.9,35.3,30.13,NNW,329,4.0,11.0,94,0.03,,SKC,1.13,0.00,VWS V14.01,2013-01-18 03:26:00,
2013-01-17 22:27:00,36.9,35.1,30.13,NNW,342,3.0,11.0,93,0.03,,SKC,1.13,0.00,VWS V14.01,2013-01-18 03:27:00,
2013-01-17 22:28:00,36.9,35.1,30.13,NNW,342,4.0,11.0,93,0.03,,SKC,1.13,0.00,VWS V14.01,2013-01-18 03:28:00,
2013-01-17 22:31:00,36.9,35.1,30.13,NNW,341,7.0,8.0,93,0.02,,SKC,1.13,0.00,VWS V14.01,2013-01-18 03:31:00,
2013-01-17 22:32:00,36.9,35.1,30.13,NNW,342,11.0,12.0,93,0.02,,SKC,1.13,0.00,VWS V14.01,2013-01-18 03:32:00,
2013-01-17 22:33:00,37.0,35.2,30.13,NNW,341,9.0,12.0,93,0.02,,SKC,1.13,0.00,VWS V14.01,2013-01-18 03:33:00,
2013-01-17 22:36:00,37.0,34.9,30.14,NW,321,9.0,12.0,92,0.03,,SKC,1.14,0.00,VWS V14.01,2013-01-18 03:36:00,
2013-01-17 22:37:00,37.0,34.9,30.14,NW,309,9.0,12.0,92,0.03,,SKC,1.14,0.00,VWS V14.01,2013-01-18 03:37:00,
2013-01-17 22:38:00,37.0,34.9,30.14,NNW,336,7.0,12.0,92,0.03,,SKC,1.14,0.00,VWS V14.01,2013-01-18 03:38:00,
2013-01-17 22:41:00,37.1,35.0,30.14,NNW,331,6.0,12.0,92,0.03,,SKC,1.14,0.00,VWS V14.01,2013-01-18 03:41:00,
2013-01-17 22:42:00,37.0,34.9,30.14,NW,323,7.0,12.0,92,0.03,,SKC,1.14,0.00,VWS V14.01,2013-01-18 03:42:00,
2013-01-17 22:43:00,37.1,35.0,30.15,NW,325,7.0,12.0,92,0.03,,SKC,1.14,0.00,VWS V14.01,2013-01-18 03:43:00,
2013-01-17 22:47:00,37.1,35.0,30.15,NNW,340,6.0,12.0,92,0.03,,SKC,1.14,0.00,VWS V14.01,2013-01-18 03:47:00,
2013-01-17 22:48:00,37.1,34.7,30.15,NNW,339,8.0,13.0,91,0.03,,SKC,1.14,0.00,VWS V14.01,2013-01-18 03:48:00,
2013-01-17 22:52:00,37.1,34.7,30.15,NNW,340,9.0,13.0,91,0.04,,SKC,1.15,0.00,VWS V14.01,2013-01-18 03:52:00,
2013-01-17 22:53:00,37.2,34.8,30.15,NNW,337,11.0,13.0,91,0.04,,SKC,1.15,0.00,VWS V14.01,2013-01-18 03:53:00,
2013-01-17 22:57:00,37.2,34.8,30.15,NW,309,6.0,13.0,91,0.04,,SKC,1.15,0.00,VWS V14.01,2013-01-18 03:57:00,
2013-01-17 22:58:00,37.3,34.6,30.15,NNW,339,7.0,13.0,90,0.04,,SKC,1.15,0.00,VWS V14.01,2013-01-18 03:58:00,
2013-01-17 22:59:00,37.3,34.6,30.15,NNW,327,9.0,13.0,90,0.04,,SKC,1.15,0.00,VWS V14.01,2013-01-18 03:59:00,
2013-01-17 23:02:00,37.3,34.6,30.15,NW,321,6.0,8.0,90,0.03,,SKC,1.15,0.00,VWS V14.01,2013-01-18 04:02:00,
2013-01-17 23:03:00,37.3,34.6,30.15,NNW,337,9.0,9.0,90,0.03,,SKC,1.15,0.00,VWS V14.01,2013-01-18 04:03:00,
2013-01-17 23:04:00,37.3,34.6,30.15,NNW,348,5.0,9.0,90,0.03,,SKC,1.15,0.00,VWS V14.01,2013-01-18 04:04:00,
2013-01-17 23:07:00,37.3,34.6,30.15,NNW,346,5.0,9.0,90,0.03,,SKC,1.15,0.00,VWS V14.01,2013-01-18 04:07:00,
2013-01-17 23:08:00,37.3,34.6,30.15,NNW,328,7.0,9.0,90,0.03,,SKC,1.15,0.00,VWS V14.01,2013-01-18 04:08:00,
2013-01-17 23:09:00,37.3,34.4,30.15,North,351,4.0,9.0,89,0.03,,SKC,1.15,0.00,VWS V14.01,2013-01-18 04:09:00,
2013-01-17 23:12:00,37.3,34.4,30.15,NNW,347,6.0,9.0,89,0.03,,SKC,1.15,0.00,VWS V14.01,2013-01-18 04:12:00,
2013-01-17 23:13:00,37.3,34.4,30.15,North,360,3.0,9.0,89,0.03,,SKC,1.15,0.00,VWS V14.01,2013-01-18 04:13:00,
2013-01-17 23:14:00,37.3,34.4,30.15,NNW,329,5.0,9.0,89,0.03,,SKC,1.15,0.00,VWS V14.01,2013-01-18 04:14:00,
2013-01-17 23:17:00,37.3,34.4,30.15,North,355,6.0,9.0,89,0.03,,SKC,1.15,0.00,VWS V14.01,2013-01-18 04:17:00,
2013-01-17 23:18:00,37.3,34.4,30.15,WNW,302,3.0,9.0,89,0.03,,SKC,1.15,0.00,VWS V14.01,2013-01-18 04:18:00,
2013-01-17 23:19:00,37.3,34.4,30.15,NNW,348,6.0,9.0,89,0.03,,SKC,1.15,0.00,VWS V14.01,2013-01-18 04:19:00,
2013-01-17 23:20:00,37.3,34.4,30.15,NNW,338,7.0,14.0,89,0.03,,SKC,1.15,0.00,VWS V14.01,2013-01-18 04:20:00,
2013-01-17 23:22:00,37.3,34.1,30.15,NNW,342,9.0,14.0,88,0.03,,SKC,1.15,0.00,VWS V14.01,2013-01-18 04:22:00,
2013-01-17 23:23:00,37.4,34.2,30.15,NNW,342,7.0,14.0,88,0.03,,SKC,1.15,0.00,VWS V14.01,2013-01-18 04:23:00,
2013-01-17 23:24:00,37.4,34.2,30.15,North,355,8.0,14.0,88,0.04,,SKC,1.16,0.00,VWS V14.01,2013-01-18 04:24:00,
2013-01-17 23:25:00,37.4,34.2,30.15,NNW,340,4.0,14.0,88,0.04,,SKC,1.16,0.00,VWS V14.01,2013-01-18 04:25:00,
2013-01-17 23:27:00,37.5,34.0,30.15,NW,321,5.0,14.0,87,0.04,,SKC,1.16,0.00,VWS V14.01,2013-01-18 04:27:00,
2013-01-17 23:28:00,37.5,34.0,30.15,NNW,333,4.0,14.0,87,0.04,,SKC,1.16,0.00,VWS V14.01,2013-01-18 04:28:00,
2013-01-17 23:29:00,37.5,34.0,30.15,North,351,3.0,14.0,87,0.04,,SKC,1.16,0.00,VWS V14.01,2013-01-18 04:29:00,
2013-01-17 23:30:00,37.5,34.0,30.16,NNW,347,7.0,14.0,87,0.04,,SKC,1.16,0.00,VWS V14.01,2013-01-18 04:30:00,
2013-01-17 23:33:00,37.6,33.8,30.16,NW,321,5.0,7.0,86,0.03,,SKC,1.16,0.00,VWS V14.01,2013-01-18 04:33:00,
2013-01-17 23:34:00,37.6,33.8,30.17,NW,306,4.0,8.0,86,0.03,,SKC,1.16,0.00,VWS V14.01,2013-01-18 04:34:00,
2013-01-17 23:36:00,37.6,33.8,30.17,WNW,287,3.0,8.0,86,0.03,,SKC,1.16,0.00,VWS V14.01,2013-01-18 04:36:00,
2013-01-17 23:38:00,37.6,33.5,30.17,NNW,348,8.0,11.0,85,0.03,,SKC,1.16,0.00,VWS V14.01,2013-01-18 04:38:00,
2013-01-17 23:39:00,37.6,33.5,30.17,NNW,328,10.0,12.0,85,0.03,,SKC,1.16,0.00,VWS V14.01,2013-01-18 04:39:00,
2013-01-17 23:40:00,37.6,33.5,30.17,NNW,332,8.0,12.0,85,0.03,,SKC,1.16,0.00,VWS V14.01,2013-01-18 04:40:00,
2013-01-17 23:41:00,37.7,33.0,30.17,NNW,336,11.0,14.0,83,0.03,,SKC,1.16,0.00,VWS V14.01,2013-01-18 04:41:00,
2013-01-17 23:43:00,37.8,33.1,30.17,NW,322,3.0,14.0,83,0.03,,SKC,1.16,0.00,VWS V14.01,2013-01-18 04:43:00,
2013-01-17 23:44:00,37.9,33.2,30.17,NW,311,2.0,14.0,83,0.03,,SKC,1.16,0.00,VWS V14.01,2013-01-18 04:44:00,
2013-01-17 23:45:00,37.9,33.2,30.17,NNW,333,3.0,14.0,83,0.03,,SKC,1.16,0.00,VWS V14.01,2013-01-18 04:45:00,
2013-01-17 23:46:00,37.9,33.2,30.17,NNW,333,7.0,14.0,83,0.03,,SKC,1.16,0.00,VWS V14.01,2013-01-18 04:46:00,
2013-01-17 23:48:00,37.9,33.2,30.17,NNW,339,7.0,14.0,83,0.03,,SKC,1.16,0.00,VWS V14.01,2013-01-18 04:48:00,
2013-01-17 23:49:00,38.0,33.0,30.18,WNW,296,4.0,14.0,82,0.03,,SKC,1.16,0.00,VWS V14.01,2013-01-18 04:49:00,
2013-01-17 23:50:00,38.0,33.0,30.17,NW,311,3.0,14.0,82,0.03,,SKC,1.16,0.00,VWS V14.01,2013-01-18 04:50:00,
2013-01-17 23:51:00,38.0,33.0,30.18,NW,314,3.0,14.0,82,0.03,,SKC,1.16,0.00,VWS V14.01,2013-01-18 04:51:00,
2013-01-17 23:53:00,38.0,33.0,30.18,NW,320,3.0,14.0,82,0.03,,SKC,1.16,0.00,VWS V14.01,2013-01-18 04:53:00,
2013-01-17 23:54:00,37.9,32.9,30.17,NNW,330,4.0,14.0,82,0.03,,SKC,1.16,0.00,VWS V14.01,2013-01-18 04:54:00,
2013-01-17 23:55:00,37.9,32.9,30.17,NNW,331,5.0,14.0,82,0.03,,SKC,1.16,0.00,VWS V14.01,2013-01-18 04:55:00,
2013-01-17 23:56:00,37.9,32.9,30.18,NW,323,3.0,14.0,82,0.03,,SKC,1.16,0.00,VWS V14.01,2013-01-18 04:56:00,
2013-01-17 23:58:00,37.9,32.6,30.18,NNW,327,3.0,14.0,81,0.03,,SKC,1.16,0.00,VWS V14.01,2013-01-18 04:58:00,
2013-01-17 23:59:00,37.9,32.6,30.18,WNW,293,3.0,14.0,81,0.03,,SKC,1.16,0.00,VWS V14.01,2013-01-18 04:59:00,